IW2NTF-3 Weather Reports


time (UTC)temp
C
wind
direction
speed
KPH
gust
KPH
rain 1hr
cm
rain 24hr
cm
rain mn
cm
humidity
%
barometer
mb
20260507045306 12 46 1.6 6.4 0.00 0.33 0.05 85 1011.7
20260507045203 12 43 1.6 6.4 0.00 0.33 0.05 85 1011.7
20260507045103 11 35 1.6 6.4 0.00 0.33 0.05 85 1011.7
20260507045003 12 24 1.6 6.4 0.00 0.33 0.05 85 1011.7
20260507044903 12 14 1.6 6.4 0.00 0.33 0.05 85 1011.7
20260507044803 12 8 1.6 6.4 0.00 0.33 0.05 85 1011.7
20260507044703 12 8 1.6 6.4 0.00 0.33 0.05 85 1011.7
20260507044603 12 15 1.6 6.4 0.00 0.33 0.05 85 1011.7
20260507044503 12 21 1.6 6.4 0.00 0.33 0.05 85 1011.6
20260507044403 12 29 1.6 8.0 0.00 0.33 0.05 85 1011.6
20260507044304 12 30 3.2 8.0 0.00 0.33 0.05 85 1011.7
20260507044203 12 32 3.2 8.0 0.00 0.33 0.05 85 1011.8
20260507044103 12 34 3.2 8.0 0.00 0.33 0.05 85 1011.8
20260507044003 12 41 3.2 8.0 0.00 0.33 0.05 85 1011.7
20260507043903 12 52 3.2 8.0 0.00 0.33 0.05 85 1011.6
20260507043803 12 54 3.2 8.0 0.00 0.33 0.05 85 1011.6
20260507043703 12 50 3.2 8.0 0.00 0.33 0.05 85 1011.6
20260507043603 12 44 3.2 8.0 0.00 0.33 0.05 85 1011.6
20260507043503 12 36 3.2 8.0 0.00 0.33 0.05 85 1011.6
20260507043403 12 27 3.2 8.0 0.00 0.33 0.05 85 1011.5
20260507043303 12 20 3.2 8.0 0.00 0.33 0.05 85 1011.5
20260507043204 11 18 3.2 8.0 0.00 0.33 0.05 85 1011.6
20260507043103 11 12 3.2 8.0 0.00 0.33 0.05 85 1011.6
20260507043003 11 1 3.2 8.0 0.00 0.33 0.05 85 1011.6
20260507042903 11 354 4.8 8.0 0.00 0.33 0.05 85 1011.5
20260507042803 11 350 4.8 9.7 0.00 0.33 0.05 85 1011.5
20260507042704 11 346 4.8 9.7 0.00 0.33 0.05 85 1011.6
20260507042603 11 344 4.8 9.7 0.00 0.33 0.05 85 1011.5
20260507042503 11 342 4.8 9.7 0.00 0.33 0.05 85 1011.5
20260507042403 12 343 4.8 9.7 0.00 0.33 0.05 85 1011.5
20260507042306 11 348 4.8 9.7 0.00 0.33 0.05 85 1011.5
20260507042203 12 350 4.8 9.7 0.00 0.33 0.05 85 1011.5
20260507042103 12 354 4.8 9.7 0.00 0.33 0.05 85 1011.5
20260507042003 12 360 4.8 9.7 0.00 0.33 0.05 85 1011.5
20260507041903 12 2 4.8 12.9 0.00 0.33 0.05 85 1011.5
20260507041803 12 4 6.4 12.9 0.00 0.33 0.05 85 1011.5
20260507041703 12 4 6.4 12.9 0.03 0.33 0.05 85 1011.3
20260507041603 12 4 6.4 12.9 0.03 0.33 0.05 85 1011.3
20260507041503 12 4 6.4 12.9 0.03 0.33 0.05 85 1011.3
20260507041403 11 2 6.4 12.9 0.03 0.33 0.05 85 1011.3
20260507041303 12 360 6.4 14.5 0.03 0.33 0.05 85 1011.3
20260507041203 12 360 6.4 14.5 0.03 0.33 0.05 85 1011.3
20260507041103 12 360 8.0 16.1 0.03 0.33 0.05 85 1011.3
20260507041003 12 359 8.0 16.1 0.03 0.33 0.05 85 1011.3
20260507040903 12 360 8.0 17.7 0.03 0.33 0.05 85 1011.2
20260507040803 12 360 8.0 17.7 0.03 0.33 0.05 85 1011.3
20260507040703 12 1 8.0 17.7 0.03 0.33 0.05 85 1011.3
20260507040603 12 2 8.0 17.7 0.03 0.33 0.05 85 1011.3
20260507040503 12 2 8.0 17.7 0.03 0.33 0.05 85 1011.3
20260507040403 11 2 8.0 17.7 0.03 0.33 0.05 85 1011.3
20260507040303 11 2 9.7 17.7 0.03 0.33 0.05 85 1011.4
20260507040203 11 2 9.7 17.7 0.03 0.33 0.05 85 1011.4
20260507040103 11 1 9.7 17.7 0.03 0.33 0.05 85 1011.3
20260507040004 11 1 9.7 17.7 0.03 0.33 0.05 85 1011.3
20260507035903 11 360 8.0 17.7 0.03 0.36 0.05 85 1011.4
20260507035803 12 1 8.0 17.7 0.03 0.36 0.05 85 1011.3
20260507035703 11 1 8.0 17.7 0.03 0.36 0.05 85 1011.3
20260507035603 11 360 8.0 17.7 0.03 0.36 0.05 85 1011.4
20260507035503 11 359 9.7 17.7 0.03 0.36 0.05 85 1011.4
20260507035403 11 358 9.7 22.5 0.03 0.36 0.05 84 1011.4
20260507035306 12 358 9.7 22.5 0.03 0.36 0.05 85 1011.4
20260507035203 12 357 11.3 22.5 0.03 0.38 0.05 85 1011.4
20260507035103 12 356 11.3 22.5 0.03 0.38 0.05 85 1011.3
20260507035003 11 356 11.3 22.5 0.03 0.38 0.05 85 1011.3
20260507034903 11 356 11.3 22.5 0.03 0.38 0.05 85 1011.3
20260507034803 11 355 11.3 22.5 0.03 0.38 0.05 84 1011.4
20260507034703 11 354 11.3 22.5 0.03 0.38 0.05 84 1011.4
20260507034603 11 353 11.3 22.5 0.03 0.38 0.05 84 1011.4
20260507034503 12 354 11.3 22.5 0.03 0.38 0.05 84 1011.4
20260507034404 12 354 9.7 22.5 0.03 0.38 0.05 84 1011.4
20260507034303 12 353 8.0 20.9 0.03 0.38 0.05 84 1011.4
20260507034203 12 351 8.0 16.1 0.03 0.38 0.05 84 1011.4
20260507034103 12 348 6.4 14.5 0.03 0.38 0.05 84 1011.3
20260507034003 12 344 8.0 14.5 0.03 0.38 0.05 84 1011.3
20260507033903 12 339 6.4 14.5 0.03 0.38 0.05 84 1011.3
20260507033803 12 336 6.4 14.5 0.03 0.38 0.05 84 1011.3
20260507033703 12 334 6.4 14.5 0.03 0.38 0.05 84 1011.3
20260507033603 12 334 6.4 14.5 0.03 0.38 0.05 84 1011.3
20260507033503 12 333 6.4 14.5 0.03 0.38 0.05 84 1011.4
20260507033403 12 333 6.4 14.5 0.03 0.38 0.05 84 1011.4
20260507033304 12 335 6.4 14.5 0.03 0.38 0.05 84 1011.3
20260507033203 12 337 6.4 12.9 0.03 0.38 0.05 84 1011.3
20260507033104 12 342 6.4 12.9 0.03 0.38 0.05 84 1011.3
20260507033003 12 347 6.4 14.5 0.03 0.38 0.05 84 1011.3
20260507032903 12 350 6.4 16.1 0.03 0.38 0.05 84 1011.3
20260507032803 12 352 8.0 16.1 0.03 0.38 0.05 84 1011.2
20260507032703 12 352 8.0 17.7 0.03 0.38 0.05 84 1011.2
20260507032603 12 351 8.0 17.7 0.03 0.38 0.05 84 1011.2
20260507032503 12 351 9.7 17.7 0.03 0.38 0.05 84 1011.2
20260507032403 12 350 9.7 17.7 0.03 0.38 0.05 84 1011.2
20260507032305 12 349 9.7 17.7 0.03 0.38 0.05 84 1011.2
20260507032203 12 349 9.7 17.7 0.03 0.38 0.05 84 1011.2
20260507032103 12 347 9.7 17.7 0.03 0.38 0.05 84 1011.2
20260507032003 12 347 9.7 17.7 0.03 0.38 0.05 84 1011.2
20260507031903 12 347 9.7 17.7 0.03 0.38 0.05 83 1011.2
20260507031803 12 347 9.7 17.7 0.03 0.38 0.05 83 1011.2
20260507031703 12 347 9.7 17.7 0.00 0.36 0.05 83 1011.2
20260507031603 12 348 9.7 20.9 0.00 0.36 0.05 83 1011.2
20260507031503 12 348 9.7 20.9 0.00 0.36 0.05 83 1011.2
20260507031403 12 349 9.7 20.9 0.00 0.36 0.05 83 1011.3
20260507031303 12 349 9.7 20.9 0.00 0.36 0.05 83 1011.3
20260507031203 12 349 9.7 20.9 0.00 0.36 0.05 83 1011.2
20260507031103 12 349 9.7 20.9 0.00 0.36 0.05 83 1011.2
20260507031003 12 347 9.7 20.9 0.00 0.36 0.05 83 1011.2
20260507030903 12 345 8.0 20.9 0.00 0.36 0.05 83 1011.2
20260507030803 12 344 8.0 20.9 0.00 0.36 0.05 83 1011.2
20260507030703 12 341 8.0 20.9 0.00 0.36 0.05 83 1011.2
20260507030603 12 339 6.4 17.7 0.00 0.36 0.05 83 1011.2
20260507030503 12 338 6.4 16.1 0.00 0.36 0.05 83 1011.3
20260507030403 12 339 6.4 14.5 0.00 0.36 0.05 83 1011.3
20260507030303 12 340 6.4 14.5 0.00 0.36 0.05 83 1011.3
20260507030203 12 340 6.4 14.5 0.00 0.36 0.05 83 1011.3
20260507030004 12 342 8.0 14.5 0.00 0.36 0.05 83 1011.3
20260507025903 12 343 8.0 14.5 0.00 0.36 0.05 82 1011.2
20260507025803 12 344 8.0 14.5 0.00 0.36 0.05 82 1011.2
20260507025704 12 345 8.0 14.5 0.00 0.36 0.05 83 1011.3
20260507025603 12 346 8.0 14.5 0.00 0.36 0.05 82 1011.2
20260507025504 12 347 8.0 16.1 0.00 0.36 0.05 83 1011.2
20260507025403 12 347 8.0 16.1 0.00 0.36 0.05 83 1011.3
20260507025306 12 347 8.0 16.1 0.00 0.36 0.05 83 1011.3
20260507025203 12 347 8.0 16.1 0.00 0.36 0.05 83 1011.2
20260507025103 12 348 8.0 17.7 0.00 0.36 0.05 83 1011.2
20260507025003 12 348 8.0 17.7 0.00 0.36 0.05 83 1011.2
20260507024903 12 348 8.0 17.7 0.00 0.36 0.05 83 1011.2
20260507024803 12 348 9.7 17.7 0.00 0.36 0.05 83 1011.2
20260507024703 12 349 9.7 19.3 0.00 0.36 0.05 83 1011.2
20260507024603 12 349 9.7 19.3 0.00 0.36 0.05 83 1011.2
20260507024503 12 349 9.7 19.3 0.00 0.36 0.05 83 1011.2
20260507024403 12 348 11.3 20.9 0.00 0.36 0.05 83 1011.2
20260507024303 12 348 11.3 20.9 0.00 0.36 0.05 83 1011.1
20260507024203 12 348 11.3 20.9 0.00 0.36 0.05 83 1011.1
20260507024103 12 348 11.3 20.9 0.00 0.36 0.05 83 1011.2
20260507024003 12 348 9.7 20.9 0.00 0.36 0.05 83 1011.2
20260507023903 12 349 11.3 20.9 0.00 0.36 0.05 83 1011.2
20260507023803 12 349 11.3 20.9 0.00 0.36 0.05 83 1011.2
20260507023703 12 349 9.7 20.9 0.00 0.36 0.05 83 1011.2
20260507023603 12 348 9.7 20.9 0.00 0.36 0.05 83 1011.2
20260507023503 12 349 9.7 20.9 0.00 0.36 0.05 83 1011.2
20260507023403 12 349 9.7 17.7 0.00 0.36 0.05 83 1011.1
20260507023303 12 349 9.7 16.1 0.00 0.36 0.05 83 1011.2
20260507023203 12 350 9.7 16.1 0.00 0.36 0.05 83 1011.2
20260507023103 12 351 9.7 16.1 0.00 0.36 0.05 83 1011.2
20260507023003 12 350 9.7 16.1 0.00 0.36 0.05 83 1011.2
20260507022903 12 350 8.0 16.1 0.00 0.36 0.05 83 1011.2
20260507022803 12 351 8.0 16.1 0.00 0.36 0.05 83 1011.2
20260507022703 12 351 8.0 16.1 0.00 0.36 0.05 83 1011.2
20260507022603 12 353 8.0 16.1 0.00 0.36 0.05 83 1011.2
20260507022503 12 353 8.0 16.1 0.00 0.36 0.05 83 1011.1
20260507022403 12 353 8.0 16.1 0.00 0.36 0.05 83 1011.1
20260507022306 12 353 8.0 16.1 0.00 0.36 0.05 83 1011.2
20260507022203 12 353 8.0 16.1 0.00 0.36 0.05 84 1011.2
20260507022103 12 353 8.0 16.1 0.00 0.36 0.05 83 1011.1
20260507022003 12 353 8.0 16.1 0.00 0.36 0.05 83 1011.1
20260507021903 12 352 8.0 16.1 0.00 0.36 0.05 83 1011.1
20260507021803 12 352 8.0 16.1 0.00 0.36 0.05 83 1011.1
20260507021703 12 352 6.4 16.1 0.00 0.36 0.05 83 1011.1
20260507021603 12 349 6.4 16.1 0.00 0.36 0.05 83 1011.1
20260507021503 12 348 6.4 16.1 0.00 0.36 0.05 83 1011.1
20260507021404 12 347 6.4 16.1 0.00 0.36 0.05 83 1011.1
20260507021303 12 347 6.4 14.5 0.00 0.36 0.05 83 1011.1
20260507021203 12 346 4.8 14.5 0.00 0.36 0.05 83 1011.1
20260507021103 12 346 4.8 14.5 0.00 0.36 0.05 83 1011.1
20260507021003 12 346 4.8 14.5 0.00 0.36 0.05 83 1011.1
20260507020903 12 349 6.4 16.1 0.00 0.36 0.05 83 1011.1
20260507020803 12 347 6.4 16.1 0.00 0.36 0.05 83 1011.2
20260507020703 12 344 6.4 16.1 0.00 0.36 0.05 83 1011.2
20260507020603 12 341 6.4 16.1 0.00 0.36 0.05 83 1011.2
20260507020503 12 340 6.4 16.1 0.00 0.36 0.05 83 1011.2
20260507020403 12 339 6.4 16.1 0.00 0.36 0.05 83 1011.2
20260507020303 12 340 6.4 16.1 0.00 0.36 0.05 83 1011.2
20260507020203 12 341 6.4 16.1 0.00 0.36 0.05 83 1011.2
20260507020103 12 343 6.4 16.1 0.00 0.36 0.05 83 1011.2
20260507020004 12 343 6.4 16.1 0.00 0.36 0.05 83 1011.2
20260507015903 12 344 8.0 16.1 0.00 0.36 0.05 83 1011.1
20260507015803 12 346 8.0 16.1 0.00 0.36 0.05 83 1011.1
20260507015704 12 351 8.0 16.1 0.00 0.36 0.05 84 1011.0
20260507015603 12 355 8.0 16.1 0.00 0.36 0.05 83 1011.0
20260507015503 12 357 8.0 16.1 0.00 0.36 0.05 84 1011.1
20260507015403 12 358 9.7 16.1 0.00 0.36 0.05 84 1011.0
20260507015306 12 358 9.7 16.1 0.00 0.36 0.05 84 1011.0
20260507015203 12 358 9.7 16.1 0.00 0.36 0.05 84 1011.0
20260507015103 12 358 8.0 16.1 0.00 0.36 0.05 84 1011.0
20260507015003 12 358 8.0 16.1 0.00 0.36 0.05 84 1011.0
20260507014903 12 359 8.0 16.1 0.00 0.36 0.05 84 1011.0
20260507014803 12 359 8.0 16.1 0.00 0.36 0.05 84 1011.0
20260507014703 12 358 8.0 16.1 0.00 0.36 0.05 84 1011.0
20260507014603 12 358 8.0 14.5 0.00 0.36 0.05 84 1011.0
20260507014503 12 357 6.4 12.9 0.00 0.36 0.05 84 1010.9
20260507014403 12 357 6.4 12.9 0.00 0.36 0.05 84 1011.0
20260507014303 12 356 6.4 12.9 0.00 0.36 0.05 84 1011.0
20260507014203 12 356 6.4 12.9 0.00 0.36 0.05 84 1011.0
20260507014103 12 356 6.4 12.9 0.00 0.36 0.05 84 1011.0
20260507014003 12 355 6.4 12.9 0.00 0.36 0.05 84 1011.0
20260507013903 12 354 6.4 12.9 0.00 0.36 0.05 85 1011.0
20260507013803 12 354 4.8 9.7 0.00 0.36 0.05 85 1011.0
20260507013703 12 354 4.8 9.7 0.00 0.36 0.05 85 1010.9
20260507013603 12 353 4.8 9.7 0.00 0.36 0.05 84 1011.0
20260507013503 12 354 4.8 9.7 0.00 0.36 0.05 84 1011.0
20260507013403 12 355 6.4 9.7 0.00 0.36 0.05 84 1010.9
20260507013303 12 356 4.8 9.7 0.00 0.36 0.05 84 1010.9
20260507013203 12 356 4.8 9.7 0.03 0.36 0.05 84 1010.9
20260507013103 12 356 4.8 9.7 0.03 0.36 0.05 84 1011.0
20260507013003 12 357 4.8 9.7 0.03 0.36 0.05 84 1011.0
20260507012903 12 357 4.8 8.0 0.03 0.36 0.05 84 1011.0
20260507012803 12 356 4.8 8.0 0.03 0.36 0.05 84 1011.0
20260507012703 12 356 4.8 8.0 0.03 0.36 0.05 84 1011.0
20260507012603 12 357 4.8 8.0 0.03 0.36 0.05 84 1011.0
20260507012503 12 358 3.2 8.0 0.03 0.36 0.05 84 1011.0
20260507012403 12 360 3.2 8.0 0.03 0.36 0.05 84 1011.0
20260507012306 12 1 3.2 8.0 0.03 0.36 0.05 84 1011.1
20260507012203 12 3 3.2 4.8 0.05 0.36 0.05 84 1011.1
20260507012103 12 5 3.2 4.8 0.05 0.36 0.05 84 1011.1
20260507012003 12 8 3.2 4.8 0.05 0.36 0.05 84 1011.1
20260507011903 12 11 3.2 4.8 0.05 0.36 0.05 84 1011.1
20260507011803 12 14 3.2 6.4 0.05 0.36 0.05 84 1011.0
20260507011703 12 15 3.2 6.4 0.05 0.36 0.05 84 1011.0
20260507011603 12 17 3.2 6.4 0.05 0.36 0.05 84 1011.1
20260507011503 12 15 3.2 6.4 0.05 0.36 0.05 84 1011.1
20260507011403 12 13 3.2 6.4 0.05 0.36 0.05 84 1011.2
20260507011303 12 11 3.2 6.4 0.05 0.36 0.05 84 1011.1
20260507011203 12 11 3.2 6.4 0.05 0.36 0.05 84 1011.1
20260507011103 12 9 3.2 6.4 0.05 0.36 0.05 84 1011.2
20260507011003 12 8 3.2 6.4 0.05 0.36 0.05 84 1011.1
20260507010903 12 7 3.2 6.4 0.05 0.36 0.05 84 1011.1
20260507010803 12 4 3.2 4.8 0.05 0.36 0.05 84 1011.2
20260507010703 12 2 1.6 4.8 0.05 0.36 0.05 84 1011.2
20260507010603 12 360 1.6 4.8 0.05 0.36 0.05 84 1011.1
20260507010503 12 360 1.6 4.8 0.05 0.36 0.05 84 1011.1
20260507010403 12 360 1.6 4.8 0.05 0.36 0.05 84 1011.1
20260507010303 12 360 1.6 4.8 0.05 0.36 0.05 84 1011.1
20260507010203 12 358 1.6 4.8 0.05 0.36 0.05 84 1011.1
20260507010004 12 348 1.6 4.8 0.05 0.36 0.05 84 1011.2
20260507005903 12 347 1.6 4.8 0.05 0.36 0.05 84 1011.2
20260507005803 12 346 0.0 4.8 0.05 0.36 0.05 84 1011.2
20260507005703 12 338 0.0 3.2 0.05 0.36 0.05 84 1011.2
20260507005603 12 338 0.0 3.2 0.05 0.36 0.05 84 1011.2
20260507005503 12 338 0.0 3.2 0.05 0.36 0.05 84 1011.2
20260507005403 12 338 0.0 3.2 0.05 0.36 0.05 84 1011.2
20260507005305 12 342 0.0 3.2 0.05 0.36 0.05 84 1011.3
20260507005203 12 344 0.0 3.2 0.05 0.36 0.05 84 1011.2
20260507005103 12 354 0.0 3.2 0.05 0.36 0.05 84 1011.2
20260507005003 12 35 0.0 1.6 0.05 0.36 0.05 84 1011.2
20260507004903 12 35 0.0 1.6 0.05 0.36 0.05 84 1011.2
20260507004803 12 37 0.0 1.6 0.05 0.36 0.05 84 1011.3
20260507004703 12 42 0.0 1.6 0.05 0.36 0.05 84 1011.3
20260507004603 12 43 0.0 1.6 0.05 0.36 0.05 84 1011.3
20260507004503 12 43 0.0 3.2 0.05 0.36 0.05 84 1011.2
20260507004403 12 43 0.0 3.2 0.05 0.36 0.05 84 1011.2
20260507004303 12 51 0.0 3.2 0.05 0.36 0.05 84 1011.2
20260507004203 12 56 0.0 3.2 0.05 0.36 0.05 84 1011.3
20260507004103 12 58 0.0 3.2 0.05 0.36 0.05 84 1011.3
20260507004003 12 61 0.0 3.2 0.05 0.36 0.05 84 1011.3
20260507003903 12 57 1.6 3.2 0.05 0.36 0.05 84 1011.3
20260507003803 12 55 1.6 3.2 0.05 0.36 0.05 84 1011.2
20260507003703 12 54 1.6 3.2 0.05 0.36 0.05 83 1011.3
20260507003604 12 54 1.6 3.2 0.05 0.36 0.05 83 1011.3
20260507003503 12 56 1.6 3.2 0.05 0.36 0.05 84 1011.3
20260507003403 12 65 0.0 3.2 0.05 0.36 0.05 84 1011.2
20260507003303 12 52 0.0 3.2 0.05 0.36 0.05 84 1011.2
20260507003203 12 268 0.0 3.2 0.03 0.33 0.05 83 1011.3
20260507003103 12 262 0.0 3.2 0.03 0.33 0.03 83 1011.3
20260507003003 12 258 0.0 4.8 0.03 0.33 0.03 83 1011.3
20260507002903 12 258 0.0 4.8 0.03 0.33 0.03 83 1011.3
20260507002803 12 259 0.0 4.8 0.03 0.33 0.03 83 1011.3
20260507002703 12 269 0.0 4.8 0.03 0.33 0.03 83 1011.4
20260507002603 12 276 1.6 4.8 0.03 0.33 0.03 83 1011.4
20260507002503 12 277 1.6 6.4 0.03 0.33 0.03 83 1011.4
20260507002403 12 277 1.6 6.4 0.03 0.33 0.03 83 1011.4
20260507002306 12 273 1.6 6.4 0.03 0.33 0.03 83 1011.4
20260507002203 12 271 1.6 6.4 0.00 0.33 0.00 82 1011.4
20260507002103 12 270 1.6 6.4 0.00 0.33 0.00 82 1011.4
20260507002003 12 269 1.6 6.4 0.00 0.33 0.00 82 1011.4
20260507001904 12 266 1.6 6.4 0.00 0.33 0.00 82 1011.4
20260507001803 12 263 1.6 6.4 0.00 0.33 0.00 82 1011.4
20260507001703 13 260 3.2 6.4 0.00 0.33 0.00 82 1011.4
20260507001604 13 256 3.2 6.4 0.00 0.33 0.00 82 1011.5
20260507001503 13 254 3.2 6.4 0.00 0.33 0.00 82 1011.5
20260507001403 13 255 3.2 6.4 0.00 0.33 0.00 82 1011.5
20260507001303 13 260 3.2 6.4 0.00 0.33 0.00 81 1011.5
20260507001203 13 266 3.2 9.7 0.00 0.33 0.00 81 1011.5
20260507001103 13 270 3.2 11.3 0.00 0.33 0.00 81 1011.4
20260507001003 13 271 3.2 11.3 0.00 0.33 0.00 81 1011.4
20260507000903 13 273 4.8 11.3 0.00 0.33 0.00 81 1011.4
20260507000803 13 273 4.8 11.3 0.00 0.33 0.00 81 1011.4
20260507000703 13 273 4.8 11.3 0.00 0.33 0.00 81 1011.4
20260507000603 13 274 4.8 11.3 0.00 0.33 0.00 80 1011.4
20260507000503 13 273 4.8 11.3 0.00 0.33 0.00 80 1011.4
20260507000405 13 272 4.8 11.3 0.00 0.33 0.00 80 1011.4
20260507000303 13 272 4.8 11.3 0.00 0.33 0.00 80 1011.5
20260507000205 13 270 4.8 11.3 0.00 0.33 0.00 80 1011.5
20260507000004 13 268 3.2 9.7 0.00 0.33 0.00 80 1011.5
20260506235903 13 268 3.2 9.7 0.00 0.33 0.00 79 1011.4
20260506235803 13 272 3.2 9.7 0.00 0.33 0.00 79 1011.4
20260506235703 13 275 1.6 6.4 0.00 0.33 0.00 79 1011.4
20260506235603 13 277 1.6 6.4 0.00 0.33 0.00 79 1011.4
20260506235503 13 286 1.6 6.4 0.00 0.33 0.00 79 1011.4
20260506235403 13 298 1.6 6.4 0.00 0.33 0.00 78 1011.4
20260506235306 13 304 1.6 6.4 0.00 0.33 0.00 78 1011.3
20260506235203 13 311 1.6 6.4 0.00 0.33 0.00 78 1011.3
20260506235103 13 318 1.6 6.4 0.00 0.33 0.00 78 1011.3
20260506235003 13 323 1.6 6.4 0.00 0.33 0.00 78 1011.3
20260506234903 13 329 1.6 6.4 0.00 0.33 0.00 78 1011.3
20260506234803 13 334 1.6 6.4 0.00 0.33 0.00 78 1011.2
20260506234703 13 339 3.2 6.4 0.00 0.33 0.00 78 1011.2
20260506234603 13 343 3.2 6.4 0.00 0.33 0.00 78 1011.2
20260506234503 13 348 3.2 6.4 0.00 0.33 0.00 78 1011.2
20260506234403 13 351 3.2 6.4 0.00 0.33 0.00 78 1011.2
20260506234303 13 353 3.2 6.4 0.00 0.33 0.00 78 1011.2
20260506234203 13 356 3.2 6.4 0.00 0.33 0.00 77 1011.2
20260506234103 13 354 3.2 6.4 0.00 0.33 0.00 78 1011.2
20260506234003 13 354 3.2 6.4 0.00 0.33 0.00 77 1011.2
20260506233903 13 354 3.2 6.4 0.00 0.33 0.00 77 1011.2
20260506233803 13 354 3.2 6.4 0.00 0.33 0.00 77 1011.2
20260506233703 13 353 3.2 6.4 0.00 0.33 0.00 78 1011.2
20260506233603 13 354 3.2 6.4 0.00 0.33 0.00 78 1011.2
20260506233503 13 354 3.2 6.4 0.00 0.33 0.00 78 1011.2
20260506233403 13 355 3.2 6.4 0.00 0.33 0.00 78 1011.2
20260506233303 13 359 3.2 9.7 0.00 0.33 0.00 78 1011.1
20260506233203 13 360 3.2 9.7 0.00 0.33 0.00 78 1011.1
20260506233103 13 2 3.2 9.7 0.00 0.33 0.00 78 1011.1
20260506233003 13 2 3.2 9.7 0.00 0.33 0.00 78 1011.1
20260506232903 13 4 3.2 9.7 0.00 0.33 0.00 78 1011.1
20260506232803 13 4 3.2 9.7 0.00 0.33 0.00 78 1011.1
20260506232703 13 6 3.2 9.7 0.00 0.33 0.00 78 1011.0
20260506232603 13 9 3.2 9.7 0.00 0.33 0.00 78 1011.0
20260506232503 13 11 3.2 9.7 0.00 0.33 0.00 78 1011.1
20260506232403 13 14 1.6 9.7 0.00 0.33 0.00 78 1011.1
20260506232306 13 15 1.6 6.4 0.00 0.33 0.00 78 1011.0
20260506232203 13 18 1.6 6.4 0.00 0.33 0.00 78 1011.0
20260506232103 13 22 1.6 4.8 0.00 0.33 0.00 78 1011.0
20260506232003 13 21 1.6 4.8 0.00 0.33 0.00 78 1011.1
20260506231903 13 18 1.6 4.8 0.00 0.33 0.00 78 1011.1
20260506231803 13 19 1.6 4.8 0.00 0.33 0.00 78 1011.1
20260506231703 13 19 1.6 6.4 0.00 0.33 0.00 79 1011.1
20260506231603 13 17 3.2 6.4 0.00 0.33 0.00 78 1011.1
20260506231504 13 20 3.2 11.3 0.00 0.33 0.00 78 1011.1
20260506231403 13 20 3.2 11.3 0.00 0.33 0.00 78 1011.1
20260506231303 13 20 3.2 12.9 0.00 0.33 0.00 78 1011.1
20260506231203 13 20 4.8 12.9 0.00 0.33 0.00 78 1011.0
20260506231103 13 19 4.8 12.9 0.00 0.33 0.00 78 1011.0
20260506231003 13 17 6.4 14.5 0.00 0.33 0.00 78 1011.0
20260506230903 13 15 6.4 14.5 0.00 0.33 0.00 78 1010.9
20260506230803 13 13 6.4 14.5 0.00 0.33 0.00 78 1010.9
20260506230703 13 11 6.4 14.5 0.00 0.33 0.00 78 1010.9
20260506230603 13 11 6.4 14.5 0.00 0.33 0.00 78 1010.9
20260506230503 13 10 6.4 14.5 0.00 0.33 0.00 78 1010.9
20260506230403 13 9 6.4 14.5 0.00 0.33 0.00 78 1010.9
20260506230303 13 8 6.4 14.5 0.00 0.33 0.00 78 1010.9
20260506230203 13 8 6.4 14.5 0.00 0.33 0.00 78 1010.9
20260506230103 13 7 4.8 14.5 0.00 0.33 0.00 78 1010.9
20260506230003 13 7 4.8 12.9 0.00 0.33 0.00 78 1010.9
20260506225903 13 10 4.8 12.9 0.00 0.33 0.00 78 1010.9
20260506225803 13 11 4.8 12.9 0.00 0.33 0.00 78 1010.9
20260506225703 13 12 4.8 12.9 0.00 0.33 0.00 78 1010.9
20260506225603 13 13 4.8 9.7 0.00 0.33 0.00 79 1010.9
20260506225503 13 14 3.2 8.0 0.00 0.33 0.00 79 1010.9
20260506225403 13 16 3.2 8.0 0.00 0.33 0.00 79 1010.8
20260506225305 13 16 3.2 8.0 0.00 0.33 0.00 79 1010.8
20260506225203 13 18 3.2 8.0 0.00 0.33 0.00 79 1010.8
20260506225104 13 19 4.8 9.7 0.00 0.33 0.00 78 1010.8
20260506225003 13 19 4.8 9.7 0.00 0.33 0.00 78 1010.8
20260506224904 13 16 4.8 9.7 0.00 0.33 0.00 78 1010.8
20260506224804 13 15 4.8 9.7 0.00 0.33 0.00 78 1010.8
20260506224703 13 12 6.4 14.5 0.00 0.33 0.00 78 1010.8
20260506224603 13 10 6.4 14.5 0.00 0.33 0.00 78 1010.8
20260506224503 13 7 6.4 14.5 0.00 0.33 0.00 78 1010.8
20260506224403 13 4 6.4 14.5 0.00 0.33 0.00 78 1010.8
20260506224303 13 1 6.4 14.5 0.00 0.33 0.00 78 1010.8
20260506224203 13 357 6.4 14.5 0.00 0.33 0.00 78 1010.8
20260506224103 13 353 6.4 14.5 0.00 0.33 0.00 78 1010.8
20260506224003 13 350 6.4 14.5 0.00 0.33 0.00 78 1010.8
20260506223903 13 347 6.4 14.5 0.00 0.33 0.00 78 1010.8
20260506223803 13 345 6.4 14.5 0.00 0.33 0.00 78 1010.8
20260506223703 13 342 6.4 14.5 0.00 0.33 0.00 78 1010.8
20260506223603 13 339 6.4 14.5 0.00 0.33 0.00 78 1010.7
20260506223503 13 338 6.4 14.5 0.00 0.33 0.00 78 1010.7
20260506223403 13 338 6.4 14.5 0.00 0.33 0.00 78 1010.7
20260506223303 13 338 6.4 14.5 0.00 0.33 0.00 78 1010.8
20260506223203 13 338 6.4 14.5 0.00 0.33 0.00 78 1010.8
20260506223103 13 338 6.4 14.5 0.00 0.33 0.00 78 1010.7
20260506223003 13 339 4.8 14.5 0.00 0.33 0.00 78 1010.7
20260506222903 13 339 4.8 14.5 0.00 0.33 0.00 78 1010.7
20260506222803 13 341 4.8 12.9 0.00 0.33 0.00 78 1010.7
20260506222703 13 341 4.8 12.9 0.00 0.33 0.00 78 1010.7
20260506222603 13 343 4.8 16.1 0.00 0.33 0.00 78 1010.8
20260506222503 13 344 6.4 16.1 0.00 0.33 0.00 78 1010.7
20260506222403 13 344 6.4 16.1 0.00 0.33 0.00 78 1010.7
20260506222305 13 344 6.4 16.1 0.00 0.33 0.00 78 1010.6
20260506222203 13 343 6.4 16.1 0.00 0.33 0.00 79 1010.6
20260506222103 13 343 6.4 16.1 0.00 0.33 0.00 79 1010.7
20260506222003 13 343 6.4 16.1 0.00 0.33 0.00 79 1010.8
20260506221903 13 343 6.4 16.1 0.00 0.33 0.00 79 1010.8
20260506221803 13 342 6.4 16.1 0.00 0.33 0.00 79 1010.7
20260506221703 13 343 6.4 16.1 0.00 0.33 0.00 79 1010.7
20260506221603 13 343 4.8 12.9 0.00 0.33 0.00 79 1010.8
20260506221503 13 342 4.8 12.9 0.00 0.33 0.00 79 1010.7
20260506221403 13 343 4.8 14.5 0.00 0.33 0.00 79 1010.7
20260506221303 13 344 4.8 14.5 0.00 0.33 0.00 79 1010.8
20260506221203 13 345 6.4 14.5 0.00 0.33 0.00 79 1010.8
20260506221103 13 346 4.8 14.5 0.00 0.33 0.00 79 1010.7
20260506221003 13 348 6.4 14.5 0.00 0.33 0.00 79 1010.8
20260506220903 13 348 6.4 14.5 0.00 0.33 0.00 79 1010.8
20260506220803 13 347 4.8 14.5 0.00 0.33 0.00 79 1010.7
20260506220703 13 346 4.8 14.5 0.00 0.33 0.00 79 1010.6
20260506220604 13 347 4.8 14.5 0.00 0.33 0.00 79 1010.6
20260506220503 13 348 4.8 14.5 0.00 0.33 0.00 79 1010.8
20260506220403 13 348 4.8 12.9 0.00 0.33 0.00 79 1010.8
20260506220303 13 349 4.8 11.3 0.00 0.33 0.00 79 1010.8
20260506220203 13 349 4.8 11.3 0.00 0.33 0.00 79 1010.8
20260506220032 13 350 6.4 11.3 0.00 0.33 0.00 79 1010.8
20260506215903 13 352 6.4 12.9 0.00 0.33 0.33 79 1010.8
20260506215803 13 353 6.4 12.9 0.00 0.33 0.33 79 1010.7
20260506215703 13 352 6.4 12.9 0.00 0.33 0.33 79 1010.8
20260506215603 13 352 6.4 12.9 0.00 0.33 0.33 79 1010.8
20260506215503 13 352 6.4 12.9 0.00 0.33 0.33 79 1010.7
20260506215403 13 353 6.4 12.9 0.00 0.33 0.33 79 1010.8
20260506215306 13 352 4.8 12.9 0.00 0.33 0.33 79 1010.8
20260506215203 13 352 4.8 12.9 0.00 0.33 0.33 79 1010.7
20260506215103 13 351 4.8 12.9 0.00 0.33 0.33 79 1010.7
20260506215004 13 349 4.8 12.9 0.00 0.33 0.33 79 1010.7
20260506214903 13 347 4.8 9.7 0.00 0.33 0.33 79 1010.7
20260506214803 13 346 4.8 9.7 0.00 0.33 0.33 79 1010.7
20260506214703 13 346 4.8 9.7 0.00 0.33 0.33 79 1010.7
20260506214603 13 345 4.8 9.7 0.00 0.33 0.33 79 1010.7
20260506214503 13 344 4.8 9.7 0.00 0.33 0.33 78 1010.6
20260506214403 13 342 4.8 9.7 0.00 0.33 0.33 78 1010.7
20260506214303 13 341 4.8 9.7 0.00 0.33 0.33 78 1010.7
20260506214203 13 340 4.8 9.7 0.00 0.33 0.33 78 1010.7
20260506214103 13 341 4.8 9.7 0.00 0.33 0.33 78 1010.7
20260506214003 13 340 4.8 9.7 0.00 0.33 0.33 78 1010.5
20260506213903 13 342 4.8 9.7 0.00 0.33 0.33 78 1010.6
20260506213803 13 342 4.8 9.7 0.00 0.33 0.33 78 1010.6
20260506213704 13 342 4.8 9.7 0.00 0.33 0.33 78 1010.6
20260506213603 13 342 4.8 9.7 0.00 0.33 0.33 78 1010.6
20260506213503 13 340 4.8 9.7 0.00 0.33 0.33 78 1010.6
20260506213403 13 340 4.8 8.0 0.00 0.33 0.33 78 1010.7
20260506213303 13 341 4.8 8.0 0.00 0.33 0.33 78 1010.7
20260506213204 13 343 4.8 8.0 0.00 0.33 0.33 78 1010.7
20260506213104 13 342 4.8 8.0 0.00 0.33 0.33 78 1010.7
20260506213004 13 343 4.8 8.0 0.00 0.33 0.33 78 1010.7
20260506212903 13 343 3.2 8.0 0.00 0.33 0.33 77 1010.8
20260506212803 13 345 3.2 8.0 0.00 0.33 0.33 77 1010.8
20260506212703 13 348 3.2 8.0 0.00 0.33 0.33 77 1010.7
20260506212603 13 349 3.2 8.0 0.00 0.33 0.33 77 1010.7
20260506212503 13 353 3.2 8.0 0.00 0.33 0.33 77 1010.7
20260506212403 13 355 3.2 8.0 0.00 0.33 0.33 77 1010.8
20260506212306 13 356 4.8 8.0 0.00 0.33 0.33 77 1010.8
20260506212203 13 355 4.8 8.0 0.00 0.33 0.33 77 1010.7
20260506212103 13 357 4.8 8.0 0.00 0.33 0.33 77 1010.6
20260506212003 13 359 4.8 8.0 0.00 0.33 0.33 77 1010.6
20260506211903 13 359 4.8 8.0 0.00 0.33 0.33 77 1010.7
20260506211804 13 359 4.8 8.0 0.00 0.33 0.33 77 1010.6
20260506211703 13 359 4.8 8.0 0.00 0.33 0.33 77 1010.6
20260506211603 13 1 4.8 8.0 0.00 0.33 0.33 77 1010.6
20260506211503 13 2 4.8 8.0 0.00 0.33 0.33 77 1010.6
20260506211403 13 4 4.8 8.0 0.00 0.33 0.33 77 1010.6
20260506211303 13 5 4.8 8.0 0.00 0.33 0.33 77 1010.6
20260506211203 13 6 4.8 8.0 0.00 0.33 0.33 77 1010.6
20260506211103 13 5 4.8 8.0 0.00 0.33 0.33 77 1010.6
20260506211003 13 3 4.8 9.7 0.00 0.33 0.33 77 1010.6
20260506210903 13 2 4.8 9.7 0.00 0.33 0.33 76 1010.5
20260506210803 13 360 4.8 9.7 0.00 0.33 0.33 77 1010.5
20260506210703 13 357 4.8 9.7 0.00 0.33 0.33 76 1010.5
20260506210603 13 354 4.8 9.7 0.00 0.33 0.33 76 1010.4
20260506210503 13 353 4.8 9.7 0.00 0.33 0.33 76 1010.4
20260506210403 13 350 4.8 9.7 0.00 0.33 0.33 76 1010.4
20260506210303 13 347 4.8 9.7 0.00 0.33 0.33 76 1010.5
20260506210203 13 345 4.8 9.7 0.00 0.33 0.33 76 1010.5
20260506210004 13 344 4.8 9.7 0.00 0.33 0.33 76 1010.5
20260506205903 13 344 4.8 9.7 0.00 0.33 0.33 76 1010.5
20260506205803 13 345 4.8 12.9 0.00 0.33 0.33 76 1010.4
20260506205703 13 346 4.8 12.9 0.00 0.33 0.33 76 1010.4
20260506205603 13 348 6.4 12.9 0.00 0.33 0.33 76 1010.4
20260506205503 13 349 6.4 12.9 0.00 0.33 0.33 76 1010.4
20260506205403 13 351 6.4 12.9 0.00 0.33 0.33 76 1010.4
20260506205305 13 353 6.4 12.9 0.00 0.33 0.33 76 1010.4
20260506205204 13 353 6.4 12.9 0.00 0.33 0.33 76 1010.4
20260506205103 13 354 8.0 12.9 0.00 0.33 0.33 76 1010.3
20260506205003 13 356 8.0 12.9 0.00 0.33 0.33 76 1010.3
20260506204903 13 358 6.4 12.9 0.00 0.33 0.33 75 1010.3
20260506204803 13 359 6.4 12.9 0.00 0.33 0.33 75 1010.3
20260506204703 13 2 6.4 12.9 0.00 0.33 0.33 75 1010.3
20260506204603 13 3 6.4 12.9 0.00 0.33 0.33 75 1010.3
20260506204504 13 5 6.4 12.9 0.00 0.33 0.33 75 1010.4
20260506204403 13 8 6.4 11.3 0.00 0.33 0.33 75 1010.4
20260506204303 13 10 6.4 11.3 0.00 0.33 0.33 75 1010.3
20260506204203 13 12 4.8 11.3 0.00 0.33 0.33 75 1010.3
20260506204103 13 15 6.4 12.9 0.00 0.33 0.33 75 1010.3
20260506204004 13 15 6.4 12.9 0.00 0.33 0.33 75 1010.3
20260506203903 13 17 6.4 14.5 0.00 0.33 0.33 75 1010.3
20260506203803 13 17 6.4 14.5 0.00 0.33 0.33 75 1010.2
20260506203704 13 16 8.0 14.5 0.00 0.33 0.33 75 1010.3
20260506203604 13 15 8.0 14.5 0.00 0.33 0.33 75 1010.3
20260506203503 13 14 8.0 14.5 0.00 0.33 0.33 75 1010.2
20260506203403 13 14 8.0 14.5 0.00 0.33 0.33 75 1010.2
20260506203303 13 12 8.0 14.5 0.00 0.33 0.33 75 1010.2
20260506203203 13 12 8.0 14.5 0.00 0.33 0.33 75 1010.2
20260506203103 13 10 8.0 14.5 0.00 0.33 0.33 75 1010.2
20260506203004 13 9 8.0 14.5 0.00 0.33 0.33 75 1010.2
20260506202904 13 7 8.0 16.1 0.00 0.33 0.33 75 1010.2
20260506202803 13 6 8.0 16.1 0.00 0.33 0.33 75 1010.2
20260506202703 13 4 8.0 16.1 0.00 0.33 0.33 75 1010.1
20260506202603 13 4 8.0 16.1 0.00 0.33 0.33 75 1010.1
20260506202503 13 2 8.0 16.1 0.00 0.33 0.33 75 1010.2
20260506202403 13 2 8.0 16.1 0.00 0.33 0.33 75 1010.2
20260506202306 13 2 8.0 16.1 0.00 0.33 0.33 75 1010.2
20260506202203 14 1 8.0 16.1 0.00 0.33 0.33 75 1010.2
20260506202103 14 1 8.0 16.1 0.00 0.33 0.33 75 1010.2
20260506202003 14 360 8.0 16.1 0.00 0.33 0.33 75 1010.2
20260506201903 14 359 8.0 12.9 0.00 0.33 0.33 75 1010.2
20260506201803 14 359 8.0 12.9 0.00 0.33 0.33 74 1010.2
20260506201703 14 359 8.0 12.9 0.00 0.33 0.33 74 1010.1
20260506201603 14 359 6.4 12.9 0.00 0.33 0.33 74 1010.1
20260506201503 14 359 6.4 12.9 0.00 0.33 0.33 74 1010.2
20260506201403 14 359 8.0 14.5 0.00 0.33 0.33 74 1010.0
20260506201303 14 1 8.0 14.5 0.00 0.33 0.33 74 1010.0
20260506201203 14 360 8.0 14.5 0.00 0.33 0.33 74 1010.0
20260506201103 14 2 8.0 14.5 0.00 0.33 0.33 73 1010.1
20260506201003 14 1 8.0 14.5 0.00 0.33 0.33 73 1010.1
20260506200903 14 3 8.0 14.5 0.00 0.33 0.33 73 1010.1
20260506200803 14 4 8.0 14.5 0.00 0.33 0.33 73 1010.1
20260506200704 14 5 8.0 14.5 0.00 0.33 0.33 73 1010.1
20260506200603 14 5 8.0 14.5 0.00 0.33 0.33 72 1010.0
20260506200503 14 6 8.0 14.5 0.00 0.33 0.33 72 1010.0
20260506200404 14 5 8.0 12.9 0.00 0.33 0.33 72 1010.1
20260506200303 14 3 8.0 12.9 0.00 0.33 0.33 72 1010.1
20260506200203 14 3 8.0 16.1 0.00 0.33 0.33 72 1010.2
20260506200104 14 1 8.0 16.1 0.00 0.33 0.33 72 1010.2
20260506200004 14 1 8.0 16.1 0.00 0.33 0.33 72 1010.2
20260506195903 14 360 8.0 19.3 0.00 0.33 0.33 72 1010.1
20260506195803 14 359 9.7 19.3 0.00 0.33 0.33 72 1010.0
20260506195703 14 358 9.7 19.3 0.00 0.33 0.33 72 1010.0
20260506195603 14 358 9.7 19.3 0.00 0.33 0.33 72 1010.0
20260506195503 14 358 9.7 19.3 0.00 0.33 0.33 72 1010.0
20260506195403 14 359 8.0 19.3 0.00 0.33 0.33 72 1010.0
20260506195306 14 360 8.0 19.3 0.00 0.36 0.33 72 1010.0
20260506195203 14 359 8.0 19.3 0.00 0.36 0.33 72 1010.0
20260506195103 14 360 9.7 19.3 0.00 0.36 0.33 72 1010.1
20260506195003 15 360 9.7 19.3 0.00 0.36 0.33 73 1010.1
20260506194903 15 1 8.0 17.7 0.00 0.36 0.33 73 1010.0
20260506194803 15 1 8.0 17.7 0.00 0.36 0.33 73 1009.9
20260506194704 15 1 8.0 17.7 0.00 0.36 0.33 73 1009.9
20260506194603 15 2 8.0 17.7 0.00 0.36 0.33 73 1009.9
20260506194503 15 1 8.0 17.7 0.00 0.36 0.33 73 1009.9
20260506194403 15 360 9.7 17.7 0.00 0.36 0.33 73 1009.8
20260506194303 15 360 9.7 17.7 0.00 0.36 0.33 73 1009.8
20260506194203 15 1 9.7 17.7 0.00 0.36 0.33 73 1009.8
20260506194103 15 2 9.7 17.7 0.00 0.36 0.33 73 1009.8
20260506194003 15 4 9.7 17.7 0.00 0.36 0.33 72 1009.7
20260506193903 15 6 9.7 17.7 0.00 0.36 0.33 72 1009.7
20260506193803 15 7 8.0 17.7 0.00 0.36 0.33 72 1009.7
20260506193703 15 8 8.0 17.7 0.00 0.36 0.33 72 1009.7
20260506193603 15 8 8.0 17.7 0.00 0.36 0.33 72 1009.6
20260506193503 15 9 8.0 17.7 0.00 0.36 0.33 72 1009.6
20260506193403 15 10 6.4 17.7 0.00 0.36 0.33 72 1009.6
20260506193303 15 12 6.4 14.5 0.00 0.36 0.33 72 1009.6
20260506193203 15 13 6.4 14.5 0.00 0.36 0.33 71 1009.6
20260506193103 15 14 4.8 14.5 0.00 0.36 0.33 71 1009.6
20260506193003 16 18 4.8 9.7 0.00 0.36 0.33 71 1009.4
20260506192903 16 18 4.8 9.7 0.00 0.36 0.33 71 1009.4
20260506192803 16 27 4.8 8.0 0.00 0.36 0.33 71 1009.4
20260506192703 16 39 3.2 8.0 0.00 0.36 0.33 71 1009.2
20260506192603 16 50 3.2 8.0 0.00 0.36 0.33 71 1009.2
20260506192503 16 68 3.2 8.0 0.00 0.36 0.33 70 1009.1
20260506192403 16 77 3.2 8.0 0.00 0.36 0.33 71 1009.1
20260506192305 16 90 3.2 8.0 0.00 0.36 0.33 70 1009.1
20260506192204 16 104 3.2 8.0 0.00 0.36 0.33 70 1009.1
20260506192103 16 119 3.2 8.0 0.00 0.36 0.33 70 1009.1
20260506192003 16 133 3.2 6.4 0.00 0.36 0.33 70 1009.1
20260506191903 16 143 3.2 6.4 0.00 0.36 0.33 70 1009.1
20260506191803 16 157 1.6 6.4 0.00 0.36 0.33 70 1009.0
20260506191703 16 167 3.2 9.7 0.00 0.36 0.33 70 1008.9
20260506191603 16 165 3.2 9.7 0.00 0.36 0.33 70 1008.9
20260506191503 16 160 3.2 9.7 0.00 0.36 0.33 70 1008.9
20260506191403 16 154 3.2 9.7 0.00 0.36 0.33 70 1008.9
20260506191303 16 146 3.2 9.7 0.00 0.36 0.33 70 1008.8
20260506191203 16 133 4.8 9.7 0.00 0.36 0.33 71 1008.8
20260506191104 16 120 4.8 9.7 0.00 0.36 0.33 71 1008.8
20260506191004 15 114 4.8 9.7 0.00 0.36 0.33 71 1008.8
20260506190903 15 112 4.8 9.7 0.00 0.36 0.33 71 1008.8
20260506190803 15 113 4.8 11.3 0.00 0.36 0.33 71 1008.8
20260506190703 15 106 4.8 11.3 0.00 0.36 0.33 72 1008.9
20260506190604 15 94 4.8 11.3 0.00 0.36 0.33 72 1008.9
20260506190503 15 84 4.8 11.3 0.00 0.36 0.33 72 1008.8
20260506190403 15 85 4.8 11.3 0.00 0.36 0.33 72 1008.8
20260506190303 15 85 4.8 12.9 0.00 0.36 0.33 72 1008.8
20260506190204 15 83 4.8 12.9 0.00 0.36 0.33 72 1008.8
20260506190005 15 81 6.4 17.7 0.00 0.36 0.33 73 1008.9
20260506185903 15 75 6.4 17.7 0.00 0.36 0.33 73 1008.9
20260506185803 15 71 6.4 17.7 0.00 0.36 0.33 73 1008.9
20260506185703 15 69 6.4 17.7 0.00 0.36 0.33 73 1008.8
20260506185603 15 71 6.4 17.7 0.00 0.36 0.33 73 1008.8
20260506185503 15 70 6.4 17.7 0.00 0.36 0.33 73 1008.8
20260506185403 15 63 8.0 17.7 0.00 0.36 0.33 73 1008.8
20260506185306 15 54 8.0 17.7 0.00 0.36 0.33 73 1008.8
20260506185203 15 46 8.0 17.7 0.00 0.36 0.33 73 1008.7
20260506185103 15 30 8.0 20.9 0.00 0.36 0.33 73 1008.7
20260506185003 15 25 9.7 20.9 0.00 0.36 0.33 73 1008.7
20260506184903 15 23 9.7 20.9 0.00 0.36 0.33 73 1008.8
20260506184803 15 18 9.7 20.9 0.00 0.36 0.33 73 1008.8
20260506184703 15 15 11.3 20.9 0.00 0.36 0.33 73 1008.7
20260506184603 15 14 11.3 20.9 0.00 0.36 0.33 73 1008.7
20260506184503 15 13 12.9 20.9 0.00 0.36 0.33 73 1008.7
20260506184403 15 14 12.9 20.9 0.00 0.36 0.33 74 1008.6
20260506184303 15 15 12.9 20.9 0.00 0.36 0.33 74 1008.6
20260506184203 15 15 12.9 20.9 0.00 0.36 0.33 74 1008.7
20260506184103 15 17 12.9 22.5 0.00 0.36 0.33 74 1008.7
20260506184003 15 16 12.9 22.5 0.00 0.36 0.33 74 1008.7
20260506183903 15 14 11.3 22.5 0.00 0.36 0.33 74 1008.7
20260506183803 15 13 11.3 22.5 0.00 0.36 0.33 74 1008.7
20260506183703 15 12 11.3 22.5 0.00 0.36 0.33 74 1008.7
20260506183604 15 10 9.7 22.5 0.00 0.36 0.33 75 1008.7
20260506183503 15 9 9.7 22.5 0.00 0.36 0.33 75 1008.7
20260506183403 15 7 9.7 22.5 0.00 0.36 0.33 75 1008.6
20260506183303 15 4 9.7 22.5 0.00 0.36 0.33 75 1008.6
20260506183204 15 1 9.7 22.5 0.00 0.36 0.33 76 1008.6
20260506183103 15 357 9.7 20.9 0.00 0.36 0.33 76 1008.6
20260506183004 15 356 9.7 20.9 0.00 0.36 0.33 76 1008.6
20260506182904 15 354 9.7 20.9 0.00 0.36 0.33 76 1008.6
20260506182803 15 352 11.3 20.9 0.00 0.36 0.33 76 1008.6
20260506182703 15 352 11.3 20.9 0.00 0.36 0.33 76 1008.6
20260506182603 15 351 11.3 20.9 0.00 0.36 0.33 76 1008.6
20260506182503 15 349 11.3 20.9 0.00 0.36 0.33 76 1008.6
20260506182403 15 344 12.9 22.5 0.00 0.36 0.33 76 1008.6
20260506182306 15 341 12.9 24.1 0.00 0.36 0.33 76 1008.6
20260506182203 15 339 11.3 24.1 0.00 0.36 0.33 76 1008.6
20260506182103 15 337 11.3 24.1 0.00 0.36 0.33 76 1008.7
20260506182003 15 333 11.3 24.1 0.00 0.36 0.33 76 1008.7
20260506181903 15 333 12.9 27.4 0.00 0.36 0.33 76 1008.7
20260506181803 15 330 12.9 27.4 0.00 0.36 0.33 75 1008.6
20260506181703 15 327 12.9 27.4 0.00 0.36 0.33 75 1008.6
20260506181603 15 325 12.9 27.4 0.00 0.36 0.33 75 1008.6
20260506181504 15 323 12.9 27.4 0.00 0.36 0.33 75 1008.5
20260506181404 15 322 11.3 27.4 0.00 0.36 0.33 75 1008.5
20260506181303 15 321 11.3 27.4 0.00 0.36 0.33 74 1008.7
20260506181204 15 321 9.7 27.4 0.00 0.36 0.33 74 1008.7
20260506181103 15 319 9.7 27.4 0.00 0.36 0.33 74 1008.7
20260506181003 15 320 9.7 27.4 0.00 0.36 0.33 74 1008.7
20260506180903 15 320 8.0 24.1 0.00 0.36 0.33 74 1008.7
20260506180803 16 321 6.4 20.9 0.00 0.36 0.33 74 1008.7
20260506180703 16 321 6.4 14.5 0.00 0.36 0.33 74 1008.7
20260506180603 16 324 4.8 14.5 0.00 0.36 0.33 74 1008.6
20260506180503 16 327 4.8 12.9 0.00 0.36 0.33 74 1008.5
20260506180403 16 331 4.8 12.9 0.00 0.36 0.33 74 1008.5
20260506180303 16 336 4.8 12.9 0.00 0.36 0.33 74 1008.4
20260506180203 16 340 4.8 12.9 0.00 0.36 0.33 74 1008.4
20260506180004 16 344 4.8 8.0 0.00 0.36 0.33 74 1008.3
20260506175903 16 344 4.8 8.0 0.00 0.36 0.33 74 1008.3
20260506175803 16 339 4.8 9.7 0.00 0.36 0.33 74 1008.3
20260506175703 16 332 4.8 9.7 0.00 0.36 0.33 74 1008.3
20260506175603 16 324 4.8 9.7 0.00 0.36 0.33 73 1008.3
20260506175503 16 322 4.8 9.7 0.00 0.36 0.33 73 1008.3
20260506175403 16 324 4.8 9.7 0.00 0.36 0.33 73 1008.3
20260506175306 16 324 4.8 9.7 0.00 0.36 0.33 73 1008.2
20260506175203 16 318 4.8 9.7 0.00 0.36 0.33 73 1008.1
20260506175103 16 309 4.8 9.7 0.00 0.36 0.33 73 1008.1
20260506175004 16 303 4.8 9.7 0.00 0.36 0.33 73 1008.2
20260506174903 16 305 4.8 11.3 0.00 0.36 0.33 73 1008.2
20260506174804 16 311 4.8 11.3 0.00 0.36 0.33 73 1008.1
20260506174703 16 320 4.8 11.3 0.00 0.36 0.33 73 1008.1
20260506174603 16 329 4.8 11.3 0.00 0.36 0.33 73 1008.1
20260506174503 16 330 4.8 11.3 0.00 0.36 0.33 74 1008.1
20260506174403 16 325 4.8 11.3 0.00 0.36 0.33 73 1008.1
20260506174303 16 321 4.8 11.3 0.00 0.36 0.33 73 1008.1
20260506174203 16 324 4.8 11.3 0.00 0.36 0.33 73 1008.1
20260506174103 16 336 4.8 14.5 0.00 0.36 0.33 73 1008.1
20260506174004 16 342 4.8 14.5 0.00 0.36 0.33 73 1008.1
20260506173903 16 347 4.8 14.5 0.00 0.36 0.33 73 1008.1
20260506173804 16 354 4.8 14.5 0.00 0.36 0.33 73 1008.1
20260506173703 16 360 4.8 14.5 0.00 0.36 0.33 73 1008.1
20260506173603 16 2 4.8 14.5 0.00 0.36 0.33 73 1008.1
20260506173503 16 3 4.8 14.5 0.00 0.36 0.33 73 1008.1
20260506173403 16 8 4.8 14.5 0.00 0.36 0.33 73 1007.9
20260506173303 16 9 6.4 14.5 0.00 0.36 0.33 73 1007.9
20260506173203 16 9 6.4 14.5 0.00 0.36 0.33 73 1007.9
20260506173103 16 9 6.4 11.3 0.00 0.36 0.33 74 1007.9
20260506173003 16 9 6.4 9.7 0.00 0.36 0.33 74 1007.9
20260506172903 16 7 6.4 9.7 0.00 0.36 0.33 74 1007.9
20260506172803 16 3 4.8 9.7 0.00 0.36 0.33 74 1007.9
20260506172703 16 360 4.8 9.7 0.00 0.36 0.33 74 1007.9
20260506172603 16 359 4.8 9.7 0.00 0.36 0.33 74 1007.9
20260506172503 16 358 4.8 9.7 0.00 0.36 0.33 74 1007.9
20260506172403 16 357 4.8 9.7 0.00 0.36 0.33 74 1007.8
20260506172306 16 354 4.8 9.7 0.00 0.36 0.33 74 1007.8
20260506172203 16 353 4.8 14.5 0.00 0.36 0.33 74 1007.7
20260506172103 16 352 4.8 14.5 0.00 0.36 0.33 74 1007.8
20260506172003 16 352 4.8 14.5 0.00 0.36 0.33 74 1007.8
20260506171903 16 352 6.4 14.5 0.00 0.36 0.33 73 1007.8
20260506171803 16 353 6.4 14.5 0.00 0.36 0.33 73 1007.8
20260506171703 16 353 6.4 14.5 0.00 0.36 0.33 73 1007.7
20260506171603 16 353 8.0 14.5 0.00 0.36 0.33 73 1007.7
20260506171503 16 353 8.0 14.5 0.00 0.36 0.33 73 1007.7
20260506171403 16 354 8.0 14.5 0.00 0.36 0.33 73 1007.7
20260506171303 16 356 8.0 14.5 0.00 0.36 0.33 73 1007.5
20260506171203 16 357 8.0 14.5 0.00 0.36 0.33 73 1007.5
20260506171103 16 358 8.0 14.5 0.00 0.36 0.33 73 1007.6
20260506171003 16 357 8.0 14.5 0.00 0.36 0.33 73 1007.6
20260506170903 16 357 8.0 14.5 0.00 0.36 0.33 73 1007.6
20260506170803 16 358 8.0 14.5 0.00 0.36 0.33 73 1007.6
20260506170703 16 358 8.0 14.5 0.00 0.36 0.33 73 1007.6
20260506170603 16 357 8.0 16.1 0.00 0.36 0.33 73 1007.6
20260506170503 16 356 8.0 16.1 0.00 0.36 0.33 72 1007.6
20260506170403 16 356 8.0 16.1 0.00 0.36 0.33 72 1007.6
20260506170303 16 354 8.0 16.1 0.00 0.36 0.33 72 1007.6
20260506170203 16 352 8.0 16.1 0.00 0.36 0.33 72 1007.6
20260506170103 16 349 8.0 17.7 0.00 0.36 0.33 72 1007.6
20260506170004 16 349 8.0 17.7 0.00 0.36 0.33 72 1007.6
20260506165904 16 347 9.7 17.7 0.00 0.36 0.33 72 1007.6
20260506165804 16 348 9.7 17.7 0.00 0.36 0.33 71 1007.5
20260506165703 16 347 9.7 17.7 0.00 0.36 0.33 71 1007.5
20260506165603 16 347 8.0 17.7 0.00 0.36 0.33 71 1007.5
20260506165503 16 348 8.0 17.7 0.00 0.36 0.33 71 1007.6
20260506165403 16 348 9.7 17.7 0.00 0.36 0.33 71 1007.6
20260506165305 16 351 9.7 19.3 0.00 0.36 0.33 71 1007.5
20260506165203 16 353 11.3 20.9 0.00 0.36 0.33 71 1007.5
20260506165103 16 354 11.3 20.9 0.00 0.36 0.33 70 1007.5
20260506165003 16 355 11.3 20.9 0.00 0.36 0.33 70 1007.4
20260506164903 16 357 11.3 20.9 0.00 0.36 0.33 71 1007.4
20260506164804 16 358 11.3 20.9 0.00 0.36 0.33 71 1007.5
20260506164703 16 358 12.9 20.9 0.00 0.36 0.33 70 1007.5
20260506164603 16 358 12.9 20.9 0.00 0.36 0.33 70 1007.5
20260506164504 16 358 12.9 20.9 0.00 0.36 0.33 70 1007.5
20260506164403 16 358 14.5 20.9 0.00 0.36 0.33 70 1007.5
20260506164303 16 357 12.9 20.9 0.00 0.36 0.33 70 1007.4
20260506164203 16 355 12.9 20.9 0.00 0.36 0.33 70 1007.4
20260506164103 16 355 12.9 22.5 0.00 0.36 0.33 70 1007.4
20260506164003 16 353 12.9 22.5 0.00 0.36 0.33 70 1007.5
20260506163903 16 351 11.3 22.5 0.00 0.36 0.33 70 1007.5
20260506163803 16 349 11.3 22.5 0.00 0.36 0.33 70 1007.5
20260506163703 17 349 11.3 22.5 0.00 0.36 0.33 70 1007.4
20260506163603 17 348 11.3 22.5 0.00 0.36 0.33 70 1007.4
20260506163503 17 348 11.3 22.5 0.00 0.36 0.33 70 1007.4
20260506163403 17 348 11.3 22.5 0.00 0.36 0.33 70 1007.4
20260506163303 17 349 9.7 22.5 0.00 0.36 0.33 70 1007.4
20260506163203 17 350 9.7 22.5 0.00 0.36 0.33 70 1007.3
20260506163103 17 350 9.7 19.3 0.00 0.36 0.33 70 1007.3
20260506163003 17 350 9.7 19.3 0.00 0.36 0.33 70 1007.3
20260506162903 17 350 9.7 17.7 0.00 0.36 0.33 70 1007.3
20260506162803 17 348 9.7 17.7 0.00 0.36 0.33 70 1007.2
20260506162703 17 345 11.3 20.9 0.00 0.36 0.33 70 1007.1
20260506162603 17 343 9.7 20.9 0.00 0.36 0.33 70 1007.1
20260506162503 17 340 9.7 20.9 0.00 0.36 0.33 70 1007.2
20260506162403 17 338 9.7 20.9 0.00 0.36 0.33 70 1007.0
20260506162306 17 336 9.7 20.9 0.00 0.36 0.33 69 1007.0
20260506162203 17 334 9.7 20.9 0.00 0.36 0.33 69 1007.0
20260506162103 17 334 9.7 20.9 0.00 0.36 0.33 69 1007.0
20260506162003 17 332 9.7 20.9 0.00 0.36 0.33 69 1006.9
20260506161803 18 334 8.0 20.9 0.00 0.36 0.33 69 1006.9
20260506161703 18 337 8.0 14.5 0.00 0.36 0.33 69 1006.8
20260506161604 18 338 8.0 14.5 0.00 0.36 0.33 68 1006.8
20260506161503 18 340 8.0 14.5 0.00 0.36 0.33 68 1006.7
20260506161403 18 344 8.0 14.5 0.00 0.36 0.33 68 1006.7
20260506161303 18 346 8.0 14.5 0.00 0.36 0.33 68 1006.7
20260506161203 17 351 8.0 17.7 0.00 0.36 0.33 67 1006.7
20260506161103 17 354 9.7 17.7 0.00 0.36 0.33 67 1006.7
20260506160903 17 356 9.7 17.7 0.00 0.36 0.33 67 1006.4
20260506160803 17 357 9.7 17.7 0.00 0.36 0.33 67 1006.4
20260506160704 17 356 9.7 17.7 0.00 0.36 0.33 67 1006.3
20260506160604 17 356 11.3 19.3 0.00 0.36 0.33 67 1006.2
20260506160503 17 355 11.3 20.9 0.00 0.36 0.33 67 1006.2
20260506160403 18 355 11.3 20.9 0.00 0.36 0.33 67 1006.2
20260506160303 18 356 12.9 20.9 0.00 0.36 0.33 67 1006.2
20260506160203 18 356 12.9 20.9 0.00 0.36 0.33 67 1006.1
20260506160103 18 356 11.3 20.9 0.00 0.36 0.33 67 1006.1
20260506160004 18 357 12.9 20.9 0.00 0.36 0.33 67 1006.1
20260506155903 18 358 12.9 20.9 0.00 0.36 0.33 67 1006.2
20260506155803 17 359 12.9 20.9 0.00 0.36 0.33 67 1006.2
20260506155703 18 359 12.9 20.9 0.00 0.36 0.33 67 1006.1
20260506155603 18 360 12.9 20.9 0.00 0.36 0.33 67 1006.2
20260506155503 18 1 11.3 19.3 0.00 0.36 0.33 67 1006.2
20260506155403 18 358 11.3 19.3 0.00 0.36 0.33 67 1006.2
20260506155306 18 356 11.3 19.3 0.00 0.36 0.33 67 1006.2
20260506155203 18 355 9.7 17.7 0.00 0.36 0.33 67 1006.2
20260506155103 18 353 9.7 17.7 0.00 0.36 0.33 67 1006.2
20260506155003 18 353 9.7 19.3 0.00 0.36 0.33 67 1006.2
20260506154903 18 353 11.3 19.3 0.00 0.36 0.33 67 1006.2
20260506154803 18 352 11.3 19.3 0.00 0.36 0.33 67 1006.3
20260506154703 18 349 11.3 19.3 0.00 0.36 0.33 67 1006.3
20260506154603 18 348 9.7 19.3 0.00 0.36 0.33 67 1006.3
20260506154503 18 348 9.7 19.3 0.00 0.36 0.33 68 1006.3
20260506154403 18 347 11.3 22.5 0.00 0.36 0.33 67 1006.4
20260506154303 18 342 11.3 22.5 0.00 0.36 0.33 67 1006.4
20260506154203 18 339 12.9 24.1 0.00 0.36 0.33 67 1006.4
20260506154103 18 335 12.9 24.1 0.00 0.36 0.33 67 1006.4
20260506154003 18 334 12.9 24.1 0.00 0.36 0.33 67 1006.4
20260506153903 18 335 14.5 24.1 0.00 0.36 0.33 67 1006.5
20260506153803 18 338 14.5 24.1 0.00 0.36 0.33 67 1006.6
20260506153703 18 341 12.9 24.1 0.00 0.36 0.33 67 1006.6
20260506153603 18 343 12.9 24.1 0.00 0.36 0.33 67 1006.5
20260506153503 18 344 12.9 24.1 0.00 0.36 0.33 67 1006.6
20260506153403 18 349 12.9 24.1 0.00 0.36 0.33 67 1006.6
20260506153304 18 355 12.9 24.1 0.00 0.36 0.33 67 1006.6
20260506153203 18 358 11.3 24.1 0.00 0.36 0.33 67 1006.6
20260506153103 18 3 11.3 22.5 0.00 0.36 0.33 67 1006.5
20260506153003 18 1 9.7 20.9 0.00 0.36 0.33 66 1006.5
20260506152904 18 360 9.7 20.9 0.00 0.36 0.33 65 1006.5
20260506152804 18 355 9.7 16.1 0.00 0.36 0.33 65 1006.6
20260506152704 19 348 9.7 24.1 0.00 0.36 0.33 65 1006.6
20260506152603 19 343 8.0 24.1 0.00 0.36 0.33 64 1006.6
20260506152504 20 340 8.0 24.1 0.00 0.36 0.33 63 1006.5
20260506152403 20 321 8.0 24.1 0.00 0.36 0.33 63 1006.5
20260506152305 20 301 8.0 24.1 0.00 0.36 0.33 62 1006.5
20260506152203 21 274 8.0 24.1 0.00 0.36 0.33 61 1006.5
20260506152103 21 245 8.0 24.1 0.00 0.36 0.33 60 1006.6
20260506152003 21 227 9.7 24.1 0.00 0.36 0.33 58 1006.6
20260506151903 22 221 9.7 24.1 0.00 0.36 0.33 53 1006.6
20260506151803 22 217 9.7 24.1 0.00 0.36 0.33 53 1006.5
20260506151703 22 218 11.3 22.5 0.00 0.36 0.33 54 1006.5
20260506151603 22 220 12.9 25.7 0.00 0.36 0.33 54 1006.5
20260506151504 22 222 12.9 25.7 0.00 0.36 0.33 54 1006.5
20260506151403 22 222 12.9 25.7 0.00 0.36 0.33 53 1006.5
20260506151303 22 216 12.9 25.7 0.00 0.36 0.33 53 1006.5
20260506151203 22 214 12.9 25.7 0.00 0.36 0.33 53 1006.5
20260506151103 22 213 12.9 25.7 0.00 0.36 0.33 53 1006.5
20260506151003 22 213 12.9 25.7 0.00 0.36 0.33 53 1006.5
20260506150903 22 209 12.9 25.7 0.00 0.36 0.33 52 1006.5
20260506150803 22 207 12.9 25.7 0.00 0.36 0.33 52 1006.5
20260506150703 22 203 12.9 25.7 0.00 0.36 0.33 52 1006.6
20260506150603 22 195 12.9 27.4 0.00 0.36 0.33 52 1006.6
20260506150503 22 192 12.9 27.4 0.00 0.36 0.33 50 1006.5
20260506150403 22 191 12.9 27.4 0.00 0.36 0.33 50 1006.5
20260506150304 22 191 12.9 30.6 0.00 0.36 0.33 51 1006.5
20260506150203 22 190 14.5 30.6 0.00 0.36 0.33 51 1006.5
20260506150004 22 188 14.5 32.2 0.00 0.36 0.33 52 1006.5
20260506145903 22 189 14.5 32.2 0.00 0.36 0.33 51 1006.5
20260506145803 22 188 16.1 32.2 0.00 0.36 0.33 51 1006.5
20260506145703 22 187 16.1 32.2 0.00 0.36 0.33 50 1006.5
20260506145603 22 188 14.5 32.2 0.00 0.36 0.33 51 1006.5
20260506145503 22 190 14.5 32.2 0.00 0.36 0.33 52 1006.5
20260506145403 22 189 14.5 32.2 0.00 0.36 0.33 52 1006.4
20260506145305 22 189 14.5 32.2 0.00 0.36 0.33 51 1006.4
20260506145203 22 190 14.5 32.2 0.00 0.36 0.33 51 1006.4
20260506145104 22 190 14.5 32.2 0.00 0.36 0.33 50 1006.4
20260506145003 22 190 14.5 27.4 0.00 0.36 0.33 51 1006.5
20260506144903 22 190 14.5 30.6 0.00 0.36 0.33 52 1006.5
20260506144803 22 190 16.1 32.2 0.00 0.36 0.33 53 1006.5
20260506144703 22 192 16.1 33.8 0.00 0.36 0.33 53 1006.5
20260506144604 21 192 17.7 33.8 0.00 0.36 0.33 53 1006.5
20260506144503 21 190 19.3 33.8 0.00 0.36 0.33 53 1006.5
20260506144403 21 190 19.3 33.8 0.00 0.36 0.33 53 1006.4
20260506144303 21 190 20.9 37.0 0.00 0.36 0.33 53 1006.4
20260506144203 21 189 20.9 37.0 0.00 0.36 0.33 52 1006.4
20260506144103 21 190 20.9 37.0 0.00 0.36 0.33 52 1006.5
20260506144003 21 190 19.3 37.0 0.00 0.36 0.33 52 1006.5
20260506143903 21 189 19.3 37.0 0.00 0.36 0.33 53 1006.5
20260506143804 21 188 19.3 37.0 0.00 0.36 0.33 53 1006.5
20260506143703 22 189 17.7 37.0 0.00 0.36 0.33 54 1006.4
20260506143603 22 187 17.7 37.0 0.00 0.36 0.33 54 1006.4
20260506143504 22 186 17.7 37.0 0.00 0.36 0.33 55 1006.4
20260506143404 22 184 16.1 37.0 0.00 0.36 0.33 56 1006.4
20260506143303 22 182 16.1 29.0 0.00 0.36 0.33 56 1006.4
20260506143203 22 182 16.1 30.6 0.00 0.36 0.33 55 1006.4
20260506143103 22 179 16.1 30.6 0.00 0.36 0.33 55 1006.4
20260506143003 22 175 16.1 30.6 0.00 0.36 0.33 55 1006.4
20260506142903 22 173 16.1 37.0 0.00 0.36 0.33 56 1006.5
20260506142803 22 172 17.7 37.0 0.00 0.36 0.33 56 1006.4
20260506142703 22 168 17.7 37.0 0.00 0.36 0.33 55 1006.4
20260506142603 22 169 17.7 37.0 0.00 0.36 0.33 55 1006.5
20260506142503 22 170 17.7 37.0 0.00 0.36 0.33 55 1006.5
20260506142403 22 171 17.7 37.0 0.00 0.36 0.33 55 1006.4
20260506142305 21 172 17.7 37.0 0.00 0.36 0.33 55 1006.4
20260506142203 21 173 17.7 37.0 0.00 0.36 0.33 55 1006.4
20260506142103 21 173 17.7 37.0 0.00 0.36 0.33 56 1006.4
20260506142003 21 175 19.3 37.0 0.00 0.36 0.33 56 1006.4
20260506141903 21 173 17.7 32.2 0.00 0.36 0.33 56 1006.4
20260506141803 21 174 17.7 32.2 0.00 0.36 0.33 56 1006.5
20260506141703 21 173 17.7 32.2 0.00 0.36 0.33 56 1006.5
20260506141603 21 171 17.7 32.2 0.00 0.36 0.33 58 1006.4
20260506141503 21 168 16.1 32.2 0.00 0.36 0.33 58 1006.4
20260506141403 21 165 16.1 32.2 0.00 0.36 0.33 59 1006.4
20260506141303 21 162 16.1 32.2 0.00 0.36 0.33 60 1006.4
20260506141204 21 157 14.5 32.2 0.00 0.36 0.33 61 1006.4
20260506141103 21 150 14.5 32.2 0.00 0.36 0.33 63 1006.4
20260506141003 21 146 12.9 25.7 0.00 0.36 0.33 63 1006.3
20260506140903 21 144 12.9 24.1 0.00 0.36 0.33 65 1006.3
20260506140803 21 136 12.9 22.5 0.00 0.36 0.33 68 1006.5
20260506140703 21 134 12.9 22.5 0.00 0.36 0.33 68 1006.5
20260506140603 21 129 11.3 20.9 0.00 0.36 0.33 69 1006.4
20260506140503 21 123 11.3 20.9 0.00 0.36 0.33 69 1006.5
20260506140403 21 123 12.9 20.9 0.00 0.36 0.33 69 1006.5
20260506140303 20 122 12.9 20.9 0.00 0.36 0.33 70 1006.4
20260506140203 20 123 12.9 20.9 0.00 0.36 0.33 70 1006.4
20260506140103 20 127 12.9 22.5 0.00 0.36 0.33 71 1006.4
20260506140004 20 127 12.9 22.5 0.00 0.36 0.33 71 1006.5
20260506135903 20 125 12.9 22.5 0.00 0.36 0.33 71 1006.5
20260506135803 20 128 14.5 22.5 0.00 0.36 0.33 71 1006.5
20260506135703 20 130 14.5 22.5 0.00 0.36 0.33 72 1006.5
20260506135604 20 132 14.5 22.5 0.00 0.36 0.33 72 1006.5
20260506135503 20 134 14.5 24.1 0.00 0.36 0.33 72 1006.6
20260506135403 20 135 14.5 24.1 0.00 0.36 0.33 73 1006.6
20260506135306 20 135 12.9 24.1 0.00 0.36 0.33 73 1006.6
20260506135203 20 133 14.5 24.1 0.00 0.36 0.33 72 1006.6
20260506135103 20 132 12.9 24.1 0.00 0.36 0.33 73 1006.6
20260506135003 20 132 12.9 24.1 0.00 0.36 0.33 73 1006.6
20260506134903 20 132 12.9 24.1 0.00 0.36 0.33 73 1006.6
20260506134803 20 133 12.9 24.1 0.00 0.36 0.33 73 1006.6
20260506134703 20 133 12.9 24.1 0.00 0.36 0.33 74 1006.7
20260506134603 19 130 12.9 24.1 0.00 0.36 0.33 74 1006.7
20260506134503 19 128 12.9 24.1 0.00 0.36 0.33 74 1006.6
20260506134403 19 128 12.9 24.1 0.00 0.36 0.33 74 1006.6
20260506134303 19 127 12.9 24.1 0.00 0.36 0.33 74 1006.7
20260506134203 19 126 12.9 24.1 0.00 0.36 0.33 74 1006.7
20260506134103 19 126 12.9 24.1 0.00 0.36 0.33 75 1006.7
20260506134003 19 124 11.3 24.1 0.00 0.36 0.33 75 1006.8
20260506133903 19 125 11.3 22.5 0.00 0.36 0.33 75 1006.6
20260506133803 19 123 11.3 20.9 0.00 0.36 0.33 75 1006.6
20260506133703 19 120 11.3 20.9 0.00 0.36 0.33 76 1006.7
20260506133603 18 120 11.3 19.3 0.00 0.36 0.33 76 1006.7
20260506133503 18 120 11.3 19.3 0.00 0.36 0.33 76 1006.7
20260506133403 18 120 11.3 19.3 0.00 0.36 0.33 75 1006.7
20260506133303 18 120 11.3 19.3 0.00 0.36 0.33 75 1006.7
20260506133203 18 121 11.3 19.3 0.00 0.36 0.33 75 1006.8
20260506133103 18 121 11.3 17.7 0.00 0.36 0.33 75 1006.8
20260506133003 18 121 11.3 17.7 0.00 0.36 0.33 75 1006.8
20260506132903 18 120 11.3 17.7 0.00 0.36 0.33 75 1006.8
20260506132804 18 119 11.3 17.7 0.00 0.36 0.33 74 1006.8
20260506132703 18 120 11.3 17.7 0.00 0.36 0.33 74 1006.9
20260506132603 18 120 11.3 20.9 0.00 0.36 0.33 74 1006.9
20260506132504 18 121 12.9 20.9 0.00 0.36 0.33 74 1006.9
20260506132403 18 121 12.9 20.9 0.00 0.36 0.33 74 1007.0
20260506132307 18 120 12.9 20.9 0.00 0.36 0.33 74 1007.0
20260506132203 18 122 12.9 22.5 0.00 0.36 0.33 73 1007.0
20260506132103 18 125 12.9 22.5 0.00 0.36 0.33 73 1007.0
20260506132003 18 127 12.9 22.5 0.00 0.36 0.33 73 1007.0
20260506131904 18 128 12.9 22.5 0.00 0.36 0.33 73 1007.0
20260506131803 18 129 12.9 22.5 0.00 0.36 0.33 73 1007.0
20260506131703 18 127 12.9 22.5 0.00 0.36 0.33 74 1007.0
20260506131603 18 127 11.3 22.5 0.00 0.36 0.33 74 1007.0
20260506131503 18 126 11.3 22.5 0.00 0.36 0.33 74 1007.0
20260506131403 18 124 11.3 22.5 0.00 0.36 0.33 74 1007.0
20260506131303 18 123 11.3 22.5 0.00 0.36 0.33 74 1007.0
20260506131203 18 120 11.3 19.3 0.00 0.36 0.33 74 1007.0
20260506131103 18 116 11.3 17.7 0.00 0.36 0.33 75 1007.2
20260506131003 19 112 9.7 17.7 0.00 0.36 0.33 76 1007.2
20260506130903 19 110 9.7 17.7 0.00 0.36 0.33 76 1007.0
20260506130803 18 108 9.7 17.7 0.00 0.36 0.33 76 1007.2
20260506130703 18 109 9.7 17.7 0.00 0.36 0.33 76 1007.2
20260506130603 18 108 9.7 22.5 0.00 0.36 0.33 76 1007.2
20260506130503 18 106 9.7 22.5 0.00 0.36 0.33 77 1007.2
20260506130403 18 107 9.7 22.5 0.00 0.36 0.33 77 1007.2
20260506130303 18 109 9.7 22.5 0.00 0.36 0.33 77 1007.2
20260506130203 18 105 9.7 22.5 0.00 0.36 0.33 77 1007.2
20260506130103 18 105 9.7 22.5 0.00 0.36 0.33 77 1007.2
20260506130004 18 106 11.3 22.5 0.00 0.36 0.33 77 1007.2
20260506125903 18 104 11.3 22.5 0.00 0.36 0.33 76 1007.2
20260506125803 18 105 11.3 22.5 0.00 0.36 0.33 76 1007.1
20260506125703 18 105 11.3 22.5 0.00 0.36 0.33 76 1007.1
20260506125603 18 107 11.3 20.9 0.00 0.36 0.33 75 1007.1
20260506125503 18 111 11.3 24.1 0.00 0.36 0.33 75 1007.1
20260506125403 18 111 12.9 24.1 0.00 0.36 0.33 75 1007.1
20260506125305 18 109 12.9 24.1 0.00 0.36 0.33 76 1007.1
20260506125203 19 112 11.3 24.1 0.00 0.36 0.33 75 1007.1
20260506125103 18 114 12.9 24.1 0.00 0.36 0.33 75 1007.0
20260506125003 18 114 12.9 24.1 0.00 0.36 0.33 75 1007.1
20260506124903 18 117 12.9 24.1 0.00 0.36 0.33 75 1007.1
20260506124803 18 118 14.5 24.1 0.00 0.36 0.33 75 1007.2
20260506124703 19 121 14.5 24.1 0.00 0.36 0.33 74 1007.2
20260506124603 19 122 14.5 24.1 0.00 0.36 0.33 74 1007.2
20260506124503 19 122 12.9 24.1 0.00 0.36 0.33 74 1007.2
20260506124403 19 122 12.9 24.1 0.00 0.36 0.33 74 1007.2
20260506124303 19 124 14.5 24.1 0.00 0.36 0.33 74 1007.1
20260506124203 19 125 14.5 27.4 0.00 0.36 0.33 74 1007.1
20260506124103 19 124 14.5 27.4 0.00 0.36 0.33 74 1007.1
20260506124003 19 121 14.5 27.4 0.00 0.36 0.33 74 1007.3
20260506123903 19 118 12.9 27.4 0.00 0.36 0.33 73 1007.3
20260506123803 19 117 12.9 27.4 0.00 0.36 0.33 73 1007.0
20260506123703 19 116 12.9 27.4 0.00 0.36 0.33 73 1007.2
20260506123603 19 110 12.9 27.4 0.00 0.36 0.33 73 1007.2
20260506123503 19 107 14.5 27.4 0.00 0.36 0.33 72 1007.2
20260506123403 20 104 14.5 27.4 0.00 0.36 0.33 72 1007.2
20260506123303 20 100 14.5 27.4 0.00 0.36 0.33 73 1007.2
20260506123203 20 96 14.5 29.0 0.00 0.36 0.33 73 1007.1
20260506123104 20 96 16.1 30.6 0.00 0.36 0.33 74 1007.1
20260506123003 20 98 16.1 30.6 0.00 0.36 0.33 74 1007.1
20260506122903 19 103 16.1 30.6 0.00 0.36 0.33 74 1007.1
20260506122803 19 105 17.7 30.6 0.00 0.36 0.33 74 1007.0
20260506122703 19 104 17.7 30.6 0.00 0.36 0.33 74 1007.0
20260506122603 19 107 17.7 30.6 0.00 0.36 0.33 74 1007.0
20260506122503 19 108 17.7 30.6 0.00 0.36 0.33 74 1007.0
20260506122403 19 108 16.1 30.6 0.00 0.36 0.33 74 1007.0
20260506122305 19 110 16.1 30.6 0.00 0.36 0.33 75 1007.1
20260506122203 19 113 14.5 30.6 0.00 0.36 0.33 75 1007.2
20260506122103 19 114 14.5 27.4 0.00 0.36 0.33 75 1007.2
20260506122003 19 113 14.5 27.4 0.00 0.36 0.33 74 1007.2
20260506121903 19 109 12.9 27.4 0.00 0.36 0.33 75 1007.1
20260506121803 19 105 12.9 27.4 0.00 0.36 0.33 75 1007.1
20260506121703 19 104 11.3 22.5 0.00 0.36 0.33 76 1007.1
20260506121603 18 104 11.3 22.5 0.00 0.36 0.33 76 1007.1
20260506121503 18 104 11.3 22.5 0.00 0.36 0.33 76 1007.2
20260506121403 18 106 11.3 22.5 0.00 0.36 0.33 77 1007.2
20260506121303 18 109 11.3 22.5 0.00 0.36 0.33 77 1007.2
20260506121203 18 110 11.3 22.5 0.00 0.36 0.33 77 1007.2
20260506121103 18 111 11.3 22.5 0.00 0.36 0.33 77 1007.2
20260506121003 18 111 11.3 22.5 0.00 0.36 0.33 77 1007.1
20260506120903 18 113 11.3 22.5 0.00 0.36 0.33 77 1007.3
20260506120803 18 114 11.3 22.5 0.00 0.36 0.33 77 1007.3
20260506120703 18 112 12.9 24.1 0.00 0.36 0.33 77 1007.2
20260506120603 18 110 12.9 25.7 0.00 0.36 0.33 77 1007.2
20260506120503 18 109 12.9 25.7 0.00 0.36 0.33 77 1007.3
20260506120403 18 107 14.5 27.4 0.00 0.36 0.33 76 1007.4
20260506120303 18 104 14.5 27.4 0.00 0.36 0.33 76 1007.4
20260506120203 18 103 14.5 27.4 0.00 0.36 0.33 76 1007.3
20260506120103 18 103 14.5 27.4 0.00 0.36 0.33 76 1007.3
20260506120005 18 105 14.5 27.4 0.00 0.36 0.33 76 1007.3
20260506115903 18 105 16.1 27.4 0.00 0.36 0.33 76 1007.2
20260506115803 18 104 14.5 27.4 0.00 0.36 0.33 75 1007.2
20260506115703 18 105 14.5 27.4 0.00 0.36 0.33 75 1007.3
20260506115604 18 109 14.5 27.4 0.00 0.36 0.33 75 1007.3
20260506115504 18 112 14.5 27.4 0.00 0.36 0.33 75 1007.3
20260506115403 18 116 14.5 29.0 0.00 0.36 0.33 75 1007.4
20260506115306 19 119 14.5 29.0 0.00 0.36 0.33 75 1007.4
20260506115203 19 119 14.5 29.0 0.00 0.36 0.33 75 1007.3
20260506115103 19 120 16.1 29.0 0.00 0.36 0.33 75 1007.3
20260506115003 19 120 16.1 29.0 0.00 0.36 0.33 76 1007.3
20260506114903 19 120 16.1 29.0 0.00 0.36 0.33 76 1007.2
20260506114803 18 122 16.1 29.0 0.00 0.36 0.33 76 1007.3
20260506114703 18 123 16.1 29.0 0.00 0.36 0.33 76 1007.3
20260506114604 18 122 16.1 29.0 0.00 0.36 0.33 76 1007.4
20260506114503 18 121 16.1 29.0 0.00 0.36 0.33 76 1007.4
20260506114403 18 119 14.5 30.6 0.00 0.36 0.33 76 1007.4
20260506114303 18 118 14.5 30.6 0.00 0.36 0.33 76 1007.4
20260506114203 18 118 14.5 30.6 0.00 0.36 0.33 77 1007.4
20260506114103 18 115 14.5 30.6 0.00 0.36 0.33 76 1007.4
20260506114003 18 113 14.5 30.6 0.00 0.36 0.33 76 1007.4
20260506113903 18 111 14.5 30.6 0.00 0.36 0.33 76 1007.5
20260506113803 18 110 12.9 30.6 0.00 0.36 0.33 76 1007.5
20260506113703 18 108 12.9 30.6 0.00 0.36 0.33 76 1007.5
20260506113603 18 109 14.5 30.6 0.00 0.36 0.33 76 1007.6
20260506113503 18 107 12.9 30.6 0.00 0.36 0.33 77 1007.6
20260506113403 18 108 12.9 24.1 0.00 0.36 0.33 77 1007.6
20260506113303 18 107 12.9 24.1 0.00 0.36 0.33 76 1007.6
20260506113203 18 105 12.9 24.1 0.00 0.36 0.33 77 1007.6
20260506113103 18 108 12.9 24.1 0.00 0.36 0.33 77 1007.6
20260506113003 18 110 14.5 24.1 0.00 0.36 0.33 78 1007.6
20260506112903 18 110 14.5 24.1 0.00 0.36 0.33 78 1007.6
20260506112803 18 110 14.5 24.1 0.00 0.36 0.33 78 1007.6
20260506112703 18 113 14.5 24.1 0.00 0.36 0.33 78 1007.6
20260506112603 17 113 12.9 24.1 0.00 0.36 0.33 78 1007.7
20260506112503 17 113 12.9 24.1 0.00 0.36 0.33 78 1007.6
20260506112403 17 112 12.9 24.1 0.00 0.36 0.33 78 1007.6
20260506112305 17 115 12.9 24.1 0.00 0.36 0.33 78 1007.6
20260506112203 17 117 12.9 24.1 0.00 0.36 0.33 78 1007.6
20260506112103 17 115 12.9 24.1 0.00 0.36 0.33 78 1007.8
20260506112003 17 113 12.9 24.1 0.00 0.36 0.33 78 1007.7
20260506111903 17 115 12.9 24.1 0.00 0.36 0.33 78 1007.7
20260506111803 17 117 12.9 29.0 0.00 0.36 0.33 78 1007.7
20260506111703 17 114 12.9 29.0 0.00 0.36 0.33 78 1007.7
20260506111603 17 115 12.9 29.0 0.00 0.36 0.33 78 1007.8
20260506111503 17 117 14.5 29.0 0.00 0.36 0.33 78 1007.7
20260506111403 17 119 14.5 30.6 0.00 0.36 0.33 78 1007.7
20260506111303 17 119 14.5 30.6 0.00 0.36 0.33 79 1007.7
20260506111203 17 119 14.5 30.6 0.00 0.36 0.33 78 1007.8
20260506111104 17 121 14.5 30.6 0.00 0.36 0.33 79 1007.8
20260506111003 17 123 12.9 30.6 0.00 0.36 0.33 79 1007.9
20260506110903 17 123 12.9 30.6 0.00 0.36 0.33 79 1007.9
20260506110803 17 120 12.9 30.6 0.00 0.36 0.33 80 1007.8
20260506110704 17 120 12.9 30.6 0.00 0.36 0.33 80 1007.9
20260506110603 17 116 12.9 30.6 0.00 0.36 0.33 80 1007.9
20260506110503 17 115 12.9 30.6 0.00 0.36 0.33 80 1007.9
20260506110403 17 113 11.3 25.7 0.00 0.36 0.33 80 1007.9
20260506110303 17 111 11.3 25.7 0.00 0.36 0.33 80 1007.9
20260506110203 17 111 11.3 25.7 0.00 0.36 0.33 80 1007.9
20260506110103 17 109 11.3 25.7 0.00 0.36 0.33 79 1007.9
20260506110004 17 110 11.3 25.7 0.00 0.36 0.33 79 1007.8
20260506105903 17 107 11.3 25.7 0.00 0.36 0.33 79 1007.9
20260506105803 17 108 11.3 25.7 0.00 0.36 0.33 79 1007.9
20260506105703 17 110 11.3 25.7 0.00 0.36 0.33 79 1007.9
20260506105603 17 110 11.3 24.1 0.00 0.36 0.33 79 1007.9
20260506105503 17 108 11.3 24.1 0.00 0.36 0.33 79 1007.9
20260506105403 17 109 11.3 24.1 0.00 0.36 0.33 79 1007.9
20260506105305 17 107 11.3 24.1 0.00 0.36 0.33 79 1007.9
20260506105203 17 105 11.3 24.1 0.00 0.36 0.33 79 1008.0
20260506105103 17 106 11.3 24.1 0.00 0.36 0.33 79 1008.0
20260506105003 17 107 11.3 25.7 0.00 0.36 0.33 79 1007.9
20260506104903 17 108 12.9 25.7 0.00 0.36 0.33 79 1007.9
20260506104803 17 109 12.9 25.7 0.00 0.36 0.33 79 1007.9
20260506104703 17 111 12.9 25.7 0.00 0.36 0.33 79 1007.8
20260506104603 17 113 12.9 25.7 0.00 0.36 0.33 79 1007.8
20260506104503 17 113 12.9 25.7 0.00 0.36 0.33 79 1007.9
20260506104403 17 112 12.9 25.7 0.00 0.36 0.33 79 1007.8
20260506104303 17 111 14.5 25.7 0.00 0.36 0.33 79 1007.8
20260506104203 17 112 14.5 25.7 0.00 0.36 0.33 79 1007.9
20260506104103 17 110 14.5 25.7 0.00 0.36 0.33 79 1007.8
20260506104003 17 109 12.9 24.1 0.00 0.36 0.33 79 1007.8
20260506103903 17 108 12.9 24.1 0.00 0.36 0.33 79 1007.9
20260506103803 17 105 14.5 27.4 0.00 0.36 0.33 79 1007.9
20260506103703 17 101 14.5 27.4 0.00 0.36 0.33 79 1007.9
20260506103603 17 98 12.9 27.4 0.00 0.36 0.33 79 1007.9
20260506103503 17 99 12.9 27.4 0.00 0.36 0.33 80 1007.9
20260506103403 17 101 14.5 27.4 0.00 0.36 0.33 80 1007.9
20260506103303 17 104 14.5 27.4 0.00 0.36 0.33 79 1007.9
20260506103203 17 105 14.5 27.4 0.00 0.36 0.33 80 1008.0
20260506103104 17 107 14.5 27.4 0.00 0.36 0.33 79 1007.9
20260506103003 17 107 16.1 27.4 0.00 0.36 0.33 79 1007.9
20260506102903 17 106 16.1 27.4 0.00 0.36 0.33 79 1007.9
20260506102804 17 107 14.5 27.4 0.00 0.36 0.33 80 1007.9
20260506102703 17 108 14.5 27.4 0.00 0.36 0.33 80 1007.9
20260506102603 17 110 12.9 27.4 0.00 0.36 0.33 80 1008.0
20260506102503 17 111 14.5 27.4 0.00 0.36 0.33 80 1008.0
20260506102404 17 112 14.5 27.4 0.00 0.36 0.33 80 1008.0
20260506102305 17 111 12.9 27.4 0.00 0.36 0.33 80 1008.0
20260506102203 17 109 12.9 27.4 0.00 0.36 0.33 80 1008.0
20260506102103 17 107 12.9 27.4 0.00 0.36 0.33 80 1007.9
20260506102003 17 105 11.3 27.4 0.00 0.36 0.33 81 1007.9
20260506101903 17 104 11.3 27.4 0.00 0.36 0.33 81 1007.9
20260506101803 17 107 12.9 27.4 0.00 0.36 0.33 81 1007.9
20260506101703 17 107 12.9 27.4 0.00 0.36 0.33 81 1007.9
20260506101603 17 107 12.9 27.4 0.00 0.36 0.33 80 1008.0
20260506101503 17 106 12.9 27.4 0.00 0.36 0.33 81 1008.0
20260506101403 17 102 12.9 25.7 0.00 0.36 0.33 81 1007.9
20260506101303 17 101 12.9 25.7 0.00 0.36 0.33 81 1007.9
20260506101203 17 99 12.9 24.1 0.00 0.36 0.33 82 1007.9
20260506101103 17 101 12.9 24.1 0.00 0.36 0.33 82 1007.9
20260506101003 17 103 14.5 24.1 0.00 0.36 0.33 82 1008.0
20260506100903 17 102 14.5 24.1 0.00 0.36 0.33 81 1008.0
20260506100803 17 99 14.5 24.1 0.00 0.36 0.33 82 1007.9
20260506100703 17 102 14.5 24.1 0.00 0.36 0.33 82 1007.9
20260506100603 17 102 14.5 24.1 0.00 0.36 0.33 82 1007.9
20260506100503 17 99 14.5 25.7 0.00 0.36 0.33 81 1007.8
20260506100403 17 99 14.5 25.7 0.00 0.36 0.33 81 1007.8
20260506100303 17 100 16.1 29.0 0.00 0.36 0.33 81 1008.0
20260506100203 17 101 14.5 29.0 0.00 0.36 0.33 81 1008.0
20260506100004 17 101 14.5 29.0 0.00 0.36 0.33 81 1007.9
20260506095903 17 102 16.1 29.0 0.00 0.36 0.33 81 1007.9
20260506095803 17 104 16.1 29.0 0.00 0.36 0.33 81 1007.9
20260506095703 17 102 14.5 29.0 0.00 0.36 0.33 81 1007.9
20260506095603 17 104 16.1 29.0 0.00 0.36 0.33 82 1007.9
20260506095503 17 105 16.1 29.0 0.00 0.36 0.33 82 1007.9
20260506095403 17 106 16.1 29.0 0.00 0.36 0.33 83 1007.9
20260506095305 17 108 16.1 29.0 0.00 0.36 0.33 83 1007.8
20260506095203 16 109 16.1 32.2 0.00 0.36 0.33 82 1007.8
20260506095103 16 109 16.1 32.2 0.00 0.36 0.33 83 1007.8
20260506095003 16 112 16.1 32.2 0.00 0.36 0.33 83 1007.8
20260506094903 16 113 16.1 33.8 0.00 0.36 0.33 83 1007.8
20260506094803 16 114 16.1 33.8 0.00 0.36 0.33 83 1007.9
20260506094704 16 114 16.1 33.8 0.00 0.36 0.33 83 1007.8
20260506094603 16 113 16.1 33.8 0.00 0.36 0.33 83 1007.8
20260506094503 16 113 14.5 33.8 0.00 0.36 0.33 84 1007.8
20260506094403 16 113 16.1 33.8 0.00 0.36 0.33 84 1007.8
20260506094303 16 110 14.5 33.8 0.00 0.36 0.33 84 1008.0
20260506094203 16 111 14.5 33.8 0.00 0.36 0.33 84 1008.0
20260506094103 16 110 14.5 33.8 0.00 0.36 0.33 84 1008.0
20260506094003 16 106 16.1 35.4 0.00 0.36 0.33 84 1008.1
20260506093903 16 105 16.1 35.4 0.00 0.36 0.33 85 1008.1
20260506093803 16 106 16.1 35.4 0.00 0.36 0.33 85 1007.9
20260506093703 16 105 17.7 35.4 0.00 0.36 0.33 85 1008.0
20260506093603 16 105 17.7 35.4 0.00 0.36 0.33 85 1008.0
20260506093503 16 104 17.7 35.4 0.00 0.36 0.33 85 1007.9
20260506093403 16 104 17.7 35.4 0.00 0.36 0.33 85 1007.9
20260506093303 16 103 17.7 35.4 0.00 0.36 0.33 86 1007.9
20260506093204 16 102 16.1 35.4 0.00 0.36 0.33 86 1007.8
20260506093103 16 104 17.7 35.4 0.00 0.36 0.33 86 1007.8
20260506093003 16 106 16.1 30.6 0.00 0.36 0.33 86 1007.8
20260506092903 16 107 16.1 30.6 0.00 0.36 0.33 86 1007.8
20260506092803 16 105 16.1 30.6 0.00 0.36 0.33 87 1007.8
20260506092703 16 107 14.5 27.4 0.00 0.36 0.33 87 1007.7
20260506092603 16 111 14.5 30.6 0.00 0.36 0.33 87 1007.7
20260506092503 16 112 14.5 30.6 0.03 0.36 0.33 87 1007.7
20260506092403 15 115 14.5 30.6 0.03 0.36 0.33 87 1007.8
20260506092305 15 117 16.1 30.6 0.03 0.36 0.33 87 1007.8
20260506092203 15 119 16.1 35.4 0.03 0.36 0.33 87 1007.8
20260506092103 15 118 16.1 35.4 0.03 0.36 0.33 87 1007.7
20260506092003 15 119 17.7 35.4 0.05 0.36 0.33 88 1007.7
20260506091903 15 119 17.7 35.4 0.05 0.36 0.33 88 1007.8
20260506091803 15 120 17.7 35.4 0.05 0.36 0.33 88 1007.8
20260506091703 15 118 17.7 35.4 0.05 0.36 0.33 88 1007.8
20260506091603 15 116 17.7 35.4 0.05 0.36 0.33 88 1007.8
20260506091503 15 116 17.7 35.4 0.05 0.36 0.33 88 1007.8
20260506091403 15 113 17.7 35.4 0.05 0.36 0.33 88 1007.9
20260506091303 15 112 17.7 35.4 0.08 0.36 0.33 88 1007.9
20260506091203 15 110 17.7 30.6 0.08 0.36 0.33 88 1007.8
20260506091103 15 108 16.1 29.0 0.08 0.36 0.33 88 1007.6
20260506091003 15 108 16.1 29.0 0.08 0.36 0.33 89 1007.6
20260506090903 15 108 16.1 29.0 0.08 0.36 0.33 89 1007.6
20260506090803 15 108 16.1 27.4 0.08 0.36 0.33 89 1007.6
20260506090703 15 108 16.1 29.0 0.08 0.36 0.33 89 1007.6
20260506090603 15 109 17.7 29.0 0.10 0.36 0.33 89 1007.6
20260506090503 15 109 17.7 29.0 0.10 0.36 0.33 89 1007.6
20260506090403 15 110 17.7 29.0 0.10 0.36 0.33 89 1007.7
20260506090303 15 110 16.1 29.0 0.10 0.36 0.33 89 1007.7
20260506090203 15 111 16.1 29.0 0.13 0.36 0.33 89 1007.7
20260506090004 15 109 16.1 29.0 0.13 0.36 0.33 89 1007.7
20260506085903 15 108 16.1 29.0 0.13 0.36 0.33 89 1007.8
20260506085803 15 109 14.5 29.0 0.13 0.36 0.33 90 1007.7
20260506085703 15 110 14.5 27.4 0.13 0.36 0.33 90 1007.7
20260506085603 15 109 12.9 27.4 0.15 0.36 0.33 90 1007.7
20260506085503 15 108 12.9 27.4 0.15 0.36 0.33 90 1007.7
20260506085403 15 110 12.9 27.4 0.15 0.36 0.33 90 1007.8
20260506085305 15 110 12.9 27.4 0.15 0.36 0.33 90 1007.8
20260506085203 15 109 14.5 29.0 0.15 0.36 0.33 90 1007.8
20260506085103 15 109 14.5 29.0 0.15 0.36 0.33 90 1007.7
20260506085003 14 111 14.5 29.0 0.15 0.36 0.33 90 1007.7
20260506084903 14 112 14.5 29.0 0.15 0.36 0.33 90 1007.8
20260506084804 14 113 14.5 29.0 0.15 0.36 0.33 90 1007.7
20260506084703 14 112 14.5 32.2 0.15 0.36 0.33 90 1007.7
20260506084603 14 115 14.5 32.2 0.18 0.36 0.33 90 1007.8
20260506084503 14 117 16.1 32.2 0.18 0.36 0.33 90 1007.8
20260506084403 14 118 16.1 32.2 0.18 0.36 0.33 90 1007.8
20260506084303 14 117 16.1 32.2 0.18 0.36 0.33 90 1007.6
20260506084203 13 116 17.7 32.2 0.20 0.36 0.33 90 1007.6
20260506084103 13 112 17.7 32.2 0.20 0.36 0.33 90 1007.5
20260506084003 13 108 17.7 33.8 0.20 0.36 0.33 90 1007.5
20260506083903 13 104 19.3 33.8 0.20 0.36 0.33 90 1007.5
20260506083803 13 100 19.3 33.8 0.20 0.36 0.33 90 1007.5
20260506083703 13 96 19.3 33.8 0.20 0.36 0.33 90 1007.5
20260506083603 13 93 19.3 33.8 0.23 0.36 0.33 90 1007.1
20260506083503 13 91 19.3 33.8 0.23 0.36 0.33 90 1006.8
20260506083403 13 87 19.3 33.8 0.23 0.36 0.33 90 1006.8
20260506083303 13 87 19.3 33.8 0.23 0.36 0.33 90 1006.7
20260506083203 13 87 20.9 40.2 0.23 0.36 0.33 90 1006.9
20260506083103 13 89 20.9 43.5 0.23 0.36 0.33 90 1006.9
20260506083003 13 88 20.9 43.5 0.23 0.36 0.33 90 1007.0
20260506082903 13 89 20.9 43.5 0.23 0.36 0.33 90 1007.0
20260506082803 13 89 22.5 43.5 0.23 0.36 0.33 90 1007.0
20260506082703 13 89 22.5 43.5 0.23 0.36 0.33 90 1006.9
20260506082603 13 89 24.1 43.5 0.23 0.36 0.33 90 1006.9
20260506082503 13 88 24.1 43.5 0.23 0.33 0.30 90 1006.9
20260506082403 13 87 24.1 43.5 0.23 0.33 0.30 90 1006.9
20260506082305 13 87 24.1 43.5 0.23 0.33 0.30 90 1006.8
20260506082203 13 87 22.5 43.5 0.23 0.33 0.30 90 1006.9
20260506082103 13 88 22.5 40.2 0.23 0.33 0.30 90 1006.9
20260506082003 13 91 20.9 40.2 0.23 0.33 0.28 89 1007.0
20260506081903 13 91 19.3 40.2 0.23 0.33 0.28 89 1007.0
20260506081803 13 93 17.7 33.8 0.23 0.33 0.28 89 1007.2
20260506081703 13 95 16.1 30.6 0.23 0.33 0.28 89 1007.5
20260506081603 13 96 14.5 30.6 0.20 0.30 0.25 89 1007.5
20260506081503 13 98 14.5 27.4 0.20 0.30 0.25 89 1007.7
20260506081403 13 100 12.9 27.4 0.20 0.30 0.25 89 1007.9
20260506081303 13 100 12.9 27.4 0.18 0.28 0.23 89 1007.9
20260506081203 13 100 12.9 27.4 0.18 0.28 0.23 89 1008.0
20260506081103 13 99 12.9 27.4 0.18 0.28 0.23 89 1008.0
20260506081003 13 95 12.9 27.4 0.18 0.28 0.23 89 1008.0
20260506080903 13 94 12.9 29.0 0.18 0.28 0.23 89 1008.0
20260506080804 13 90 12.9 29.0 0.18 0.28 0.23 89 1008.0
20260506080703 13 88 14.5 29.0 0.18 0.28 0.23 89 1008.0
20260506080603 13 88 14.5 29.0 0.15 0.25 0.23 89 1008.0
20260506080503 13 88 14.5 29.0 0.15 0.25 0.23 89 1008.0
20260506080403 13 87 14.5 29.0 0.15 0.25 0.23 89 1007.9
20260506080303 13 87 14.5 29.0 0.15 0.25 0.23 89 1007.9
20260506080203 13 85 14.5 29.0 0.15 0.23 0.20 89 1008.0
20260506073503 13 113 9.7 19.3 0.05 0.15 0.10 89 1008.4
20260506073403 13 112 9.7 19.3 0.05 0.15 0.10 89 1008.5
20260506073303 13 110 11.3 19.3 0.05 0.15 0.10 89 1008.5
20260506073203 13 108 11.3 19.3 0.05 0.15 0.10 89 1008.5
20260506073103 13 103 11.3 22.5 0.03 0.13 0.08 89 1008.5
20260506073003 13 101 11.3 22.5 0.03 0.13 0.08 90 1008.5
20260506072903 13 99 11.3 22.5 0.03 0.13 0.08 90 1008.5
20260506072803 13 97 11.3 22.5 0.03 0.13 0.08 90 1008.4
20260506072703 13 95 11.3 22.5 0.03 0.13 0.08 90 1008.4
20260506072603 13 93 11.3 22.5 0.03 0.13 0.08 90 1008.4
20260506072504 13 92 11.3 22.5 0.00 0.10 0.05 90 1008.4
20260506072403 13 91 11.3 22.5 0.00 0.10 0.05 90 1008.4
20260506072305 13 88 11.3 22.5 0.00 0.10 0.05 90 1008.2
20260506072203 13 87 11.3 22.5 0.00 0.10 0.05 90 1008.2
20260506072103 13 89 11.3 20.9 0.00 0.10 0.05 90 1008.2
20260506072003 13 89 11.3 22.5 0.00 0.10 0.05 90 1008.2
20260506071903 13 90 11.3 22.5 0.00 0.10 0.05 90 1008.2
20260506071803 13 89 11.3 22.5 0.00 0.10 0.05 90 1008.1
20260506071703 13 90 11.3 22.5 0.00 0.10 0.05 90 1008.1
20260506071604 13 92 11.3 22.5 0.00 0.10 0.05 90 1008.2
20260506071503 13 94 11.3 22.5 0.00 0.10 0.05 90 1008.2
20260506071403 13 95 11.3 22.5 0.00 0.10 0.05 90 1008.2
20260506071303 13 95 11.3 22.5 0.00 0.10 0.05 90 1008.2
20260506071203 13 95 11.3 22.5 0.00 0.10 0.05 90 1008.2
20260506071103 13 94 11.3 22.5 0.00 0.10 0.05 90 1008.4
20260506071003 13 93 11.3 22.5 0.00 0.10 0.05 90 1008.4
20260506070903 13 92 11.3 22.5 0.00 0.10 0.05 90 1008.4
20260506070803 13 93 12.9 22.5 0.00 0.10 0.05 90 1008.3
20260506070703 13 92 12.9 22.5 0.00 0.10 0.05 90 1008.2
20260506070603 13 90 12.9 22.5 0.00 0.10 0.05 90 1008.2
20260506070503 13 87 11.3 20.9 0.00 0.10 0.05 90 1008.2
20260506070403 13 84 11.3 20.9 0.00 0.10 0.05 90 1008.2
20260506070303 13 84 11.3 27.4 0.00 0.10 0.05 90 1008.1
20260506070203 13 83 12.9 27.4 0.00 0.10 0.05 90 1008.1
20260506070103 13 82 12.9 27.4 0.00 0.10 0.05 90 1008.1
20260506062503 13 88 12.9 24.1 0.00 0.13 0.05 91 1008.1
20260506062403 13 88 12.9 24.1 0.00 0.13 0.05 91 1008.2
20260506062305 13 88 11.3 24.1 0.00 0.13 0.05 91 1008.2
20260506062203 13 87 11.3 24.1 0.00 0.13 0.05 91 1008.1
20260506062103 13 87 11.3 24.1 0.00 0.13 0.05 91 1008.1
20260506062003 13 88 11.3 24.1 0.00 0.13 0.05 91 1008.1
20260506061903 13 91 11.3 20.9 0.00 0.13 0.05 91 1008.2
20260506061803 13 93 11.3 20.9 0.00 0.13 0.05 91 1008.3
20260506061703 13 94 11.3 19.3 0.00 0.13 0.05 91 1008.3
20260506061603 13 94 11.3 19.3 0.00 0.13 0.05 91 1008.3
20260506061503 13 95 11.3 19.3 0.00 0.13 0.05 91 1008.3
20260506061403 13 97 11.3 19.3 0.00 0.13 0.05 91 1008.2
20260506061303 13 101 11.3 19.3 0.00 0.13 0.05 91 1008.4
20260506061203 13 106 11.3 19.3 0.00 0.13 0.05 91 1008.4
20260506061103 13 106 11.3 19.3 0.00 0.13 0.05 91 1008.4
20260506061003 13 108 11.3 19.3 0.00 0.13 0.05 91 1008.4
20260506060903 13 107 11.3 19.3 0.00 0.13 0.05 91 1008.4
20260506060803 13 106 11.3 19.3 0.00 0.13 0.05 91 1008.4
20260506060703 13 108 11.3 19.3 0.00 0.13 0.05 91 1008.4
20260506060603 13 110 11.3 19.3 0.00 0.13 0.05 91 1008.3
20260506060503 13 110 11.3 19.3 0.00 0.13 0.05 91 1008.4
20260506060403 13 109 9.7 19.3 0.00 0.13 0.05 91 1008.4
20260506060303 13 104 9.7 19.3 0.00 0.13 0.05 91 1008.4
20260506060203 13 102 9.7 19.3 0.00 0.13 0.05 91 1008.4
20260506051403 13 86 9.7 20.9 0.00 0.18 0.05 91 1008.3
20260506051303 13 87 11.3 20.9 0.00 0.18 0.05 91 1008.3
20260506051203 13 87 11.3 20.9 0.00 0.18 0.05 91 1008.3
20260506051103 13 87 11.3 20.9 0.00 0.18 0.05 91 1008.3
20260506051003 13 86 11.3 20.9 0.00 0.18 0.05 91 1008.3
20260506050903 13 86 11.3 20.9 0.00 0.18 0.05 91 1008.2
20260506050803 13 85 9.7 20.9 0.00 0.18 0.05 91 1008.2
20260506050703 13 85 11.3 20.9 0.00 0.18 0.05 91 1008.2
20260506050603 13 85 11.3 20.9 0.00 0.18 0.05 91 1008.2
20260506050503 13 84 11.3 20.9 0.03 0.18 0.05 91 1008.2
20260506050403 13 85 9.7 19.3 0.03 0.18 0.05 91 1008.3
20260506050303 13 84 11.3 19.3 0.03 0.18 0.05 91 1008.3
20260506050203 13 83 9.7 19.3 0.03 0.18 0.05 91 1008.3
20260506050103 13 84 9.7 19.3 0.03 0.18 0.05 91 1008.3